GFSFLT1_sfc_dewp_000.txt.gz
Dewpoint
59 56 56 56 57 57 56 57 57 57 58 58 58 57 57 59 55 57 59 56 58 59 58 58 57 57 57 55 56 56 56 56 55
58 59 58 58 59 58 57 57 57 58 57 58 58 57 57 56 53 55 56 56 57 57 56 56 56 55 55 53 54 54 53 53 53
59 59 61 60 60 58 56 56 57 58 58 57 58 56 58 52 51 55 56 58 56 55 55 55 55 55 54 52 52 52 52 52 51
61 62 62 62 59 57 55 54 55 58 58 58 58 56 58 55 52 52 56 60 55 55 53 53 54 54 53 51 50 50 50 51 51
63 64 63 62 59 57 53 52 54 57 59 58 57 59 59 51 50 53 57 57 54 53 52 50 50 51 50 50 50 50 49 49 49
61 62 63 61 60 57 53 53 55 56 58 58 59 60 55 46 50 54 61 57 55 54 53 50 50 50 50 50 51 52 51 51 51
59 62 63 61 61 59 55 54 55 56 49 50 59 57 50 45 48 56 61 58 57 56 55 53 52 52 52 53 53 53 54 53 53
58 60 60 60 62 59 57 55 55 50 47 48 53 52 46 41 41 54 62 59 58 59 58 57 55 54 54 54 54 54 54 54 54
55 55 57 57 57 57 55 52 51 47 44 43 40 42 41 41 37 49 62 60 58 59 59 59 58 55 55 55 55 56 56 56 56
53 53 54 53 53 53 52 50 48 48 44 42 40 37 37 38 39 37 60 62 59 57 58 58 58 58 56 56 56 56 57 57 57
53 52 53 53 53 52 52 50 49 49 50 47 41 38 38 38 38 41 45 60 60 55 54 55 56 56 57 56 56 57 57 57 57
54 52 52 54 54 53 53 52 51 50 50 49 46 42 39 39 38 39 40 50 58 57 53 53 54 54 56 56 56 56 59 60 60
56 55 53 54 54 54 54 54 53 52 51 50 50 46 44 41 40 39 39 41 45 55 58 57 55 55 55 56 56 56 59 60 60
56 56 55 53 54 54 54 54 53 53 53 51 50 50 49 46 42 41 40 41 43 42 53 57 57 57 56 56 56 56 59 60 60
56 56 56 55 53 54 55 54 54 53 53 52 51 50 50 50 50 48 47 46 44 44 43 47 53 57 58 56 55 56 57 59 60
56 56 56 57 55 54 54 55 54 54 54 53 52 52 52 50 49 50 50 49 48 46 45 45 45 46 58 59 56 56 56 57 59
57 57 57 57 57 57 54 55 55 55 55 53 51 50 50 51 51 51 50 50 50 49 46 44 46 46 47 51 58 59 56 56 57
59 58 58 58 58 58 58 56 55 55 56 55 53 49 48 48 49 50 50 51 50 50 48 46 45 45 46 50 52 57 58 56 58
60 60 59 59 60 59 59 59 57 56 55 56 55 53 50 48 47 48 47 46 45 46 47 45 47 48 49 51 52 54 56 56 57
60 60 60 60 60 60 60 60 59 58 57 56 55 55 54 53 51 49 49 49 48 47 48 49 48 48 51 51 51 56 58 57 58

GFSFLT1_sfc_dewp_003.txt.gz
Dewpoint
59 58 57 58 58 58 57 58 58 56 57 59 59 57 57 59 53 58 58 56 59 58 58 57 57 56 55 57 56 55 55 54 55
60 60 59 59 59 59 58 57 58 58 58 59 59 58 57 55 52 57 56 57 58 57 57 56 55 55 53 55 55 54 53 52 53
62 60 61 61 61 60 58 58 58 60 59 58 60 58 59 55 51 56 57 59 58 56 56 55 56 55 54 53 53 53 52 51 51
61 62 63 62 62 60 58 56 57 60 60 59 60 58 59 55 51 54 56 61 58 56 54 55 55 55 54 51 51 51 51 51 50
65 65 65 63 62 60 58 55 54 56 59 60 59 61 60 54 48 54 56 59 57 57 54 53 53 54 53 52 52 51 50 50 50
63 64 65 64 62 60 57 54 55 59 61 61 61 61 57 52 47 52 60 59 57 56 56 54 52 53 52 52 53 53 53 52 52
61 62 64 63 62 62 58 55 57 59 52 53 60 57 55 51 48 52 62 60 57 57 56 55 53 53 54 54 54 54 55 55 54
60 61 61 61 61 60 59 56 54 53 51 47 49 55 53 48 44 51 64 61 59 58 58 58 57 56 55 56 56 56 56 56 56
58 60 59 59 59 59 58 56 54 53 49 47 50 53 50 46 42 43 64 63 61 59 60 60 60 59 58 57 57 57 57 57 57
55 56 56 58 57 58 56 56 52 51 48 44 43 42 43 43 41 38 60 63 63 59 59 60 60 61 60 58 57 57 58 58 58
54 54 54 54 54 54 54 53 52 49 48 45 43 41 39 38 38 39 40 62 63 61 58 58 59 59 59 59 59 60 59 58 58
55 53 53 53 53 52 52 52 51 49 48 49 49 44 40 38 38 38 40 44 60 61 56 56 56 58 58 58 58 61 61 61 61
55 55 53 53 54 54 53 53 52 52 50 49 50 49 45 41 38 38 38 40 41 55 59 58 59 59 57 57 57 60 61 61 61
55 55 55 53 54 54 54 54 53 53 52 52 51 50 50 48 45 42 40 39 41 42 50 58 57 58 59 56 57 58 61 61 61
56 56 56 55 53 53 55 54 54 53 53 52 52 51 50 50 50 48 44 43 42 41 41 43 52 57 58 58 56 56 59 60 61
56 56 56 57 55 54 53 54 54 54 54 52 52 52 52 50 50 50 49 48 47 45 43 43 43 45 57 58 58 58 57 60 60
57 56 56 57 57 56 54 54 54 54 54 52 50 50 51 52 52 52 49 48 48 48 48 46 45 45 45 49 57 58 57 56 57
59 58 57 57 58 57 57 56 55 54 55 55 53 51 49 47 49 51 52 51 51 50 50 49 46 45 46 49 51 55 57 56 57
60 60 60 59 59 58 58 59 57 55 55 56 55 54 50 48 47 49 48 50 50 51 51 50 48 46 46 48 50 52 55 56 56
60 60 60 60 60 60 60 60 60 59 57 56 56 55 55 53 52 50 50 49 47 48 48 48 46 45 46 47 49 54 55 56 57

GFSFLT1_sfc_dewp_006.txt.gz
Dewpoint
59 58 59 59 58 58 58 59 58 58 57 58 59 56 57 58 52 58 59 55 58 57 57 57 57 55 56 56 54 55 54 54 55
60 59 59 59 59 59 58 58 59 58 59 60 59 59 57 54 51 56 56 56 59 58 57 56 55 54 53 55 54 53 52 53 52
60 61 60 60 62 61 60 58 59 60 60 59 61 60 60 55 51 56 56 59 59 58 57 57 56 55 53 53 53 53 52 52 51
63 61 62 62 62 62 61 59 59 59 61 60 60 61 61 56 51 53 56 61 59 58 57 57 57 57 55 53 53 53 53 52 52
64 65 64 64 64 62 61 59 57 57 60 61 61 62 62 56 51 49 54 61 59 59 57 56 57 57 56 55 53 53 53 54 54
63 64 64 65 64 63 61 60 57 58 60 62 62 62 58 54 49 47 58 61 59 59 58 56 55 56 55 55 55 55 55 54 54
61 63 64 64 64 63 62 61 58 59 56 56 61 58 56 54 51 47 54 62 61 60 59 58 56 55 55 55 55 55 56 56 56
59 60 61 62 62 61 61 58 56 54 53 51 49 52 54 53 50 47 55 59 62 61 59 59 57 56 56 56 57 57 57 57 57
57 59 60 60 59 59 58 57 55 53 52 51 48 47 51 52 49 46 53 59 63 61 61 60 59 59 58 57 57 58 58 58 58
57 58 59 59 58 58 57 57 56 54 52 50 47 47 49 51 48 44 51 57 64 61 61 61 61 61 61 60 59 59 59 59 59
56 56 57 57 58 57 57 56 56 54 52 50 47 44 44 45 46 44 42 53 62 63 59 60 61 61 61 61 62 62 62 60 60
56 55 54 55 55 55 55 54 53 52 50 49 48 45 43 41 40 38 38 41 55 62 60 59 61 62 60 60 61 63 63 63 62
55 55 55 53 53 53 52 52 52 52 50 50 48 48 48 46 43 40 38 38 38 47 60 60 60 60 60 58 59 62 62 63 63
55 55 55 54 53 53 53 53 53 52 52 52 51 50 50 50 48 45 42 39 40 39 46 54 58 58 59 58 57 60 61 61 62
56 56 55 55 54 53 53 53 53 53 53 52 52 52 52 52 51 50 48 45 42 40 40 41 46 56 58 59 59 60 60 60 61
55 55 55 56 55 55 54 53 53 53 53 52 52 53 53 52 52 52 51 50 48 45 43 42 42 43 54 58 59 60 60 60 60
56 56 56 56 56 56 55 54 53 54 54 53 53 51 52 53 53 53 52 51 51 49 47 45 44 44 44 46 56 58 59 58 59
59 58 57 57 57 56 56 56 54 54 55 54 54 52 50 48 50 51 52 52 52 51 49 49 48 48 47 49 50 54 57 57 58
60 60 59 59 58 57 57 57 57 57 55 57 55 55 55 52 51 51 49 50 51 51 52 51 50 49 48 49 50 52 54 56 58
55 58 59 60 60 60 59 59 59 59 58 57 57 56 55 55 54 52 52 52 51 50 50 51 51 51 50 50 50 53 55 56 57

GFSFLT1_sfc_dewp_009.txt.gz
Dewpoint
61 59 59 59 59 58 59 60 59 58 58 58 58 59 56 57 51 58 60 57 58 58 57 58 57 57 57 56 54 55 54 54 54
60 59 59 60 59 60 58 59 60 59 58 59 60 60 59 54 51 56 57 55 60 58 58 58 57 55 55 56 54 54 54 54 54
60 61 60 60 61 61 60 59 59 60 60 60 60 61 62 56 50 53 56 58 60 60 59 58 57 56 55 56 56 54 54 53 53
62 62 61 62 62 63 62 61 59 59 60 61 60 62 63 57 52 51 56 59 60 59 58 58 59 58 56 55 56 56 55 54 54
64 65 64 63 63 63 63 62 61 59 59 60 62 62 63 58 53 50 53 60 62 59 59 59 58 59 58 56 55 55 55 55 54
61 64 64 64 64 64 64 63 61 61 60 61 62 63 59 56 53 49 53 59 62 60 60 59 58 59 58 58 57 56 55 55 55
60 62 64 64 64 64 63 63 62 61 55 56 60 59 57 55 54 51 54 57 61 61 60 60 59 58 58 58 57 57 57 57 56
59 59 59 61 62 61 62 60 59 55 54 54 53 53 54 55 54 53 55 57 60 62 62 61 60 59 57 58 58 57 57 57 58
57 57 58 58 59 59 58 57 57 55 53 52 51 49 48 50 52 52 55 56 58 60 62 62 62 60 59 58 58 58 58 58 58
57 56 57 57 58 57 57 56 56 55 54 53 51 50 48 47 48 49 52 55 55 57 60 63 62 61 61 60 59 60 59 59 59
57 56 56 57 57 57 57 57 56 56 55 54 52 50 47 46 47 49 49 54 55 55 57 60 61 62 62 62 64 64 63 62 62
58 57 55 56 56 56 56 56 55 54 54 53 52 50 48 46 44 43 43 44 52 55 57 57 60 63 61 62 64 64 64 64 64
56 56 56 55 54 54 54 53 53 53 52 52 51 50 49 48 46 44 43 42 40 45 52 57 60 62 62 58 61 63 63 63 63
56 56 56 55 54 53 53 53 52 52 52 52 51 51 50 50 49 48 47 45 44 42 47 51 55 58 60 59 59 61 61 61 62
55 55 55 55 55 54 53 53 53 53 53 52 52 52 53 52 52 51 51 49 46 45 43 44 45 53 56 59 59 60 60 60 60
54 55 55 55 55 55 55 54 53 53 53 53 53 53 53 53 53 53 53 52 51 50 46 44 44 44 53 55 57 60 61 61 60
56 55 55 55 55 55 55 55 54 54 54 53 54 52 53 53 53 53 53 53 53 52 51 49 46 46 46 47 53 56 58 59 61
59 59 58 58 57 56 57 56 55 55 56 54 54 52 51 51 51 51 53 53 53 52 52 51 49 48 47 49 49 53 54 56 58
53 55 57 58 59 58 58 58 58 57 56 57 56 55 55 53 53 53 52 51 52 52 52 52 51 50 49 51 51 52 54 55 58
47 46 48 49 52 55 58 59 59 59 58 58 58 57 56 56 54 52 53 54 53 52 52 52 52 52 51 51 51 54 56 57 58

GFSFLT1_sfc_dewp_012.txt.gz
Dewpoint
62 59 58 59 59 59 59 61 60 59 59 59 59 59 57 58 52 55 59 60 61 59 58 60 60 59 59 57 55 56 56 55 56
61 60 59 59 60 59 59 59 60 60 60 59 60 60 61 55 52 52 58 58 61 59 59 58 58 57 56 57 56 56 55 55 55
60 61 61 60 60 61 61 60 59 59 61 60 60 61 63 57 52 51 56 59 61 61 60 59 59 58 57 57 57 56 55 55 55
62 62 62 62 61 62 63 63 62 60 60 60 61 62 63 58 54 51 53 60 62 62 60 60 60 59 58 56 58 57 56 55 55
64 65 65 63 62 63 64 64 63 62 61 60 61 63 63 59 57 53 51 59 62 63 60 60 60 59 59 58 57 57 57 57 56
61 62 64 64 63 63 64 64 63 63 63 61 61 62 59 57 57 54 55 57 62 62 62 61 61 60 59 59 59 57 57 57 57
60 61 63 63 64 64 63 63 64 63 58 55 57 57 57 57 56 55 59 59 59 61 62 62 61 61 59 59 60 59 58 57 57
58 58 58 58 61 60 61 60 59 58 56 55 53 53 52 54 55 56 59 60 59 59 60 61 63 62 61 59 59 59 59 58 58
57 56 56 56 57 58 58 58 57 56 56 54 53 52 51 50 51 52 56 58 59 58 58 60 62 64 63 62 60 61 61 59 58
57 56 56 56 57 57 57 57 57 57 56 55 54 53 52 50 49 48 52 54 56 58 57 58 60 61 64 64 64 63 62 61 62
57 56 56 56 57 57 57 57 57 57 56 55 54 54 53 51 49 48 47 53 55 57 58 58 57 59 61 64 65 64 64 63 63
58 57 56 56 56 56 56 56 56 56 55 55 55 54 53 51 50 48 47 48 54 55 58 58 58 57 57 59 64 64 64 64 64
57 57 57 57 55 55 55 55 54 54 54 53 53 53 52 51 50 49 48 47 46 48 53 56 57 59 58 58 60 62 62 63 63
57 57 56 56 55 54 54 54 53 53 53 52 52 52 51 51 51 50 49 48 48 47 49 53 55 57 59 58 58 61 61 61 61
56 56 55 55 55 55 54 54 54 53 53 53 53 53 53 53 52 52 52 51 50 48 47 48 49 54 56 57 59 61 62 61 60
54 54 55 55 55 55 55 55 54 54 54 53 53 54 54 53 53 53 53 53 52 51 50 49 48 48 54 56 57 58 60 62 62
57 57 56 56 56 56 55 55 55 56 55 54 54 52 53 54 54 54 54 53 53 53 52 51 48 48 48 49 54 57 58 59 60
47 49 51 53 56 56 57 57 57 56 56 56 55 52 52 54 54 52 53 53 53 53 53 53 52 50 48 50 51 54 56 57 59
44 45 45 46 49 48 50 50 55 56 55 56 57 57 56 53 51 54 54 52 52 53 53 53 52 52 51 51 51 52 54 56 59
44 43 44 43 44 45 46 46 47 48 50 50 52 53 53 53 52 48 49 52 54 54 53 53 53 53 52 52 52 54 56 57 59

GFSFLT1_sfc_dewp_015.txt.gz
Dewpoint
62 61 59 58 59 59 59 59 61 61 60 60 60 60 60 58 56 56 60 61 61 62 60 60 62 62 62 61 58 57 58 57 57
62 60 59 59 59 59 59 59 59 60 61 60 60 60 61 58 56 54 57 61 64 63 60 60 60 60 59 59 58 57 57 56 57
62 62 60 60 60 60 60 61 60 59 59 60 60 61 60 59 58 56 54 60 63 61 61 60 60 59 59 58 58 57 57 57 57
61 61 62 62 62 60 62 63 63 62 61 61 60 62 63 58 59 58 54 55 62 63 62 62 61 61 60 59 58 59 58 57 57
63 65 64 63 63 62 63 63 64 63 63 62 62 62 63 58 59 59 58 58 59 63 63 63 61 61 61 60 59 58 59 58 58
61 62 63 63 64 63 63 63 64 64 64 63 62 62 55 55 57 58 60 61 60 60 62 62 63 62 61 61 61 60 59 59 59
60 60 62 62 63 64 64 63 64 64 61 60 60 58 56 54 54 55 60 62 62 60 60 62 62 62 63 62 61 61 61 59 59
60 60 60 60 60 59 60 60 60 60 60 59 58 58 57 55 54 54 59 61 62 61 59 60 61 62 63 63 62 61 61 61 60
60 59 60 60 59 59 60 58 58 59 59 59 58 57 56 55 54 53 56 58 58 58 60 59 59 60 62 64 65 64 63 63 63
60 59 59 59 59 59 59 58 58 58 57 58 58 57 56 55 54 54 55 56 58 58 57 58 59 58 60 63 65 65 65 64 63
59 59 59 59 59 58 58 58 58 58 57 57 57 56 56 55 55 54 54 55 57 59 59 58 58 59 59 60 64 64 65 65 64
60 59 58 58 58 58 58 57 57 57 56 56 56 55 55 55 55 54 53 53 55 56 59 60 60 59 59 60 61 63 64 65 65
59 58 58 58 58 57 56 56 56 55 55 54 55 54 55 55 54 54 54 53 52 54 56 58 60 60 61 60 60 62 62 62 63
58 57 57 57 57 56 56 56 55 55 55 55 55 55 55 55 54 54 54 53 53 53 54 55 57 59 60 61 61 63 62 61 62
56 56 56 57 57 57 57 56 56 56 56 55 55 56 56 56 55 54 54 54 54 53 53 53 53 55 56 58 60 61 63 63 62
55 54 53 55 55 55 56 56 56 56 57 55 54 55 56 56 56 56 55 55 55 55 54 54 53 52 56 56 58 59 61 62 63
42 44 45 45 47 47 48 50 50 52 53 54 54 52 51 53 56 56 55 55 55 55 55 55 54 54 53 53 56 57 59 60 61
41 42 42 43 44 44 45 46 46 45 45 47 51 48 47 50 49 52 53 54 55 55 55 55 55 55 54 54 54 55 56 58 60
39 40 41 41 42 42 43 42 44 43 43 44 42 47 48 44 43 40 46 47 49 52 52 54 54 55 55 55 54 54 56 57 60
37 38 39 39 39 41 42 41 42 42 43 43 44 44 45 46 45 44 41 45 44 47 49 50 52 54 55 56 56 56 56 58 60

GFSFLT1_sfc_dewp_018.txt.gz
Dewpoint
63 61 59 58 59 59 59 59 59 61 61 61 61 61 60 60 57 53 54 59 59 61 62 61 61 63 63 62 62 60 59 59 58
62 62 60 58 59 59 59 59 60 59 60 61 61 61 62 57 57 55 53 56 61 64 63 62 61 61 61 60 60 59 58 58 57
63 62 60 60 60 59 61 60 61 61 60 60 60 59 63 57 56 57 55 56 61 64 63 62 61 61 60 60 59 60 58 58 58
61 61 62 62 63 62 62 63 64 64 63 62 62 63 63 57 55 54 55 59 59 62 63 62 63 62 61 61 60 59 60 59 58
62 64 63 63 63 63 63 63 64 64 64 63 63 63 63 56 54 54 54 59 60 60 61 63 63 63 62 62 61 61 60 60 59
60 62 62 62 62 63 63 63 63 64 65 64 64 63 56 53 51 51 58 59 62 61 61 62 63 63 63 64 62 61 61 60 60
59 61 61 62 63 63 63 63 63 64 58 57 62 58 55 54 53 51 59 57 61 61 61 61 61 62 63 64 63 62 62 62 60
58 59 59 59 60 58 58 58 57 57 57 57 56 56 56 55 54 55 59 58 61 60 60 61 60 61 62 63 64 65 64 63 63
57 56 57 58 57 57 58 57 57 57 57 56 56 56 56 56 55 56 60 58 60 61 59 58 60 61 60 62 64 65 65 65 64
57 57 57 57 57 57 57 57 57 57 57 57 57 57 57 57 56 56 59 60 59 61 62 61 59 59 60 60 63 64 65 66 65
59 59 58 58 58 58 57 57 57 57 57 57 57 57 57 57 57 57 57 61 59 60 62 63 62 61 60 59 62 62 64 65 66
60 60 59 58 58 58 58 58 58 57 57 57 57 56 56 56 56 57 57 57 59 60 60 62 63 63 63 62 61 63 63 63 64
60 59 58 58 58 58 58 58 58 58 58 57 57 56 56 56 56 56 56 56 56 58 60 60 60 62 63 64 63 64 63 63 63
58 58 59 59 59 58 58 57 57 56 56 56 56 56 55 56 56 56 56 56 56 56 57 59 59 59 60 62 64 64 64 63 63
57 55 52 52 53 52 51 52 52 52 52 51 52 52 53 54 53 54 54 55 56 56 56 56 56 58 58 59 60 62 62 64 64
44 44 42 43 43 43 42 43 43 43 44 42 43 45 47 50 48 52 54 52 52 53 55 55 56 56 60 60 59 60 61 62 63
39 41 40 41 40 41 41 42 42 41 41 40 41 38 39 40 43 42 40 43 44 47 51 52 54 55 56 57 59 59 59 61 62
38 39 39 39 40 39 40 39 41 38 39 39 39 38 37 40 38 38 38 38 42 41 43 45 47 47 49 54 55 57 58 59 60
32 33 34 34 34 34 35 32 35 35 35 36 34 39 38 36 36 35 38 38 39 40 41 41 42 43 46 51 54 56 57 59 60
28 28 29 29 28 29 30 29 30 31 32 32 34 36 37 36 36 36 32 33 32 34 36 38 40 41 45 46 49 55 55 56 58

GFSFLT1_sfc_dewp_021.txt.gz
Dewpoint
63 61 60 58 59 59 59 59 59 60 61 61 61 62 62 62 56 56 54 53 58 59 60 62 61 61 63 63 63 62 61 60 59
63 62 60 59 59 59 60 59 60 60 59 60 60 61 63 58 55 55 56 54 57 61 62 62 62 61 61 62 61 61 60 59 59
63 63 61 60 61 61 60 62 62 62 61 61 61 61 63 56 55 55 57 60 56 60 62 63 62 62 61 61 61 60 60 60 59
61 62 62 62 63 63 62 62 64 64 64 63 63 64 64 59 56 54 55 61 59 59 61 63 63 63 63 62 61 61 60 60 60
63 63 64 63 63 63 63 63 62 64 65 65 65 65 64 58 56 55 55 62 59 60 60 61 62 63 63 64 63 62 61 61 61
59 62 63 61 62 62 62 62 63 64 65 65 65 65 58 56 54 52 58 59 59 60 61 61 62 62 63 65 65 64 62 62 61
58 60 62 62 63 63 63 63 63 64 58 58 63 59 57 56 55 55 60 58 58 59 61 61 61 61 62 64 65 64 64 63 62
56 57 57 59 60 59 59 60 60 58 56 56 55 55 55 55 56 57 62 60 59 60 61 61 60 62 61 62 63 65 66 66 65
55 54 56 57 57 57 58 57 56 57 57 56 56 56 56 56 57 57 62 63 60 61 62 63 61 60 61 62 62 64 65 66 66
56 56 56 57 57 57 57 57 57 57 57 57 57 57 57 57 58 58 60 63 63 61 62 63 64 63 61 61 63 64 64 65 66
59 59 59 58 58 58 58 58 58 58 57 57 57 56 57 57 57 57 58 62 63 63 63 63 64 65 64 63 63 63 64 64 65
60 60 60 59 59 58 58 58 58 58 58 57 57 57 55 55 55 56 56 58 61 63 63 63 63 63 65 65 65 65 64 64 64
59 59 59 59 59 59 59 58 56 55 54 54 55 55 54 54 53 54 55 57 56 59 63 63 62 62 62 63 64 65 65 65 64
59 59 57 54 55 53 52 50 50 50 50 50 50 50 51 51 49 51 53 54 57 57 58 60 62 63 61 62 62 63 64 64 64
48 46 44 44 45 43 44 44 43 43 42 39 40 42 44 46 47 50 49 52 52 49 52 55 56 60 62 62 62 62 61 62 64
42 42 40 41 41 41 40 42 43 43 42 41 42 42 41 42 42 42 40 41 41 42 43 45 49 51 60 60 62 61 61 61 61
38 39 39 39 39 39 39 39 39 39 39 37 38 36 36 40 38 36 37 38 39 41 41 42 44 45 45 47 56 58 59 59 59
33 34 34 34 35 36 36 35 37 34 35 35 35 33 31 35 35 35 35 35 34 38 37 35 37 39 41 44 46 50 56 56 57
27 28 28 29 30 29 31 27 30 31 32 34 28 36 35 33 32 32 32 31 28 29 32 31 32 35 39 45 49 53 52 53 55
25 23 25 24 25 26 27 27 28 28 32 32 31 32 33 34 30 26 27 27 26 27 29 31 32 33 36 42 45 50 49 49 50

GFSFLT1_sfc_dewp_024.txt.gz
Dewpoint
63 62 61 60 60 60 59 59 59 58 59 61 61 61 61 62 58 55 55 54 56 59 60 61 62 61 62 63 64 63 63 61 60
64 63 61 60 59 59 59 58 59 61 60 60 60 60 63 60 56 55 54 56 56 57 61 62 62 62 62 61 62 62 61 61 60
64 64 62 61 61 61 60 60 63 63 63 62 62 63 63 59 55 55 55 58 60 58 59 62 62 64 62 62 61 62 61 61 61
63 63 63 63 62 63 63 62 62 63 64 64 65 65 65 61 59 56 55 60 60 60 60 60 62 64 62 63 63 62 62 61 61
65 65 65 63 63 62 62 63 62 62 63 65 66 66 65 62 59 57 55 61 60 60 60 61 61 63 63 64 64 65 63 62 62
61 63 64 63 61 61 62 63 63 65 65 65 65 65 62 59 57 55 60 62 58 59 60 61 61 62 62 63 65 65 65 64 63
59 61 62 63 64 64 63 63 64 64 61 59 61 62 60 59 57 56 62 62 59 59 60 61 61 62 62 62 63 64 65 65 66
57 58 59 60 62 60 61 62 62 60 59 57 56 59 59 56 56 58 63 64 62 61 61 62 62 62 62 62 62 63 65 66 67
55 55 56 57 58 59 58 58 57 57 57 56 56 56 56 56 57 58 62 64 64 63 63 63 63 63 64 63 63 64 65 65 66
57 57 57 58 58 57 57 58 58 58 58 58 57 57 57 57 57 58 60 63 65 65 64 64 64 64 64 65 65 64 65 65 65
60 59 60 60 59 59 59 58 58 58 58 57 57 56 56 56 55 55 56 61 64 65 64 64 64 64 64 64 65 66 66 65 65
60 60 60 60 59 59 59 58 59 58 57 56 55 54 55 54 53 54 54 55 59 62 65 65 64 63 64 63 63 64 65 65 66
59 59 56 57 59 57 56 53 50 51 51 51 52 53 53 53 52 51 51 53 53 59 63 65 64 64 62 62 62 62 64 64 64
53 48 45 46 48 46 45 44 45 44 43 43 41 43 42 45 45 46 45 46 43 41 50 57 60 62 63 62 61 62 63 63 64
45 44 42 43 43 43 42 41 43 43 42 38 39 40 41 42 41 42 35 34 37 40 39 41 44 54 56 55 55 57 59 61 61
40 42 41 41 40 40 37 39 38 38 39 38 35 37 36 36 35 30 30 35 34 37 36 39 39 37 48 50 50 51 52 53 55
33 35 36 34 36 35 34 33 35 35 35 34 33 33 32 34 30 34 35 32 35 30 34 28 27 30 34 39 48 48 48 51 54
30 30 30 31 32 32 31 31 30 31 33 32 32 32 31 30 32 31 33 28 26 30 26 22 26 26 28 38 42 48 48 50 52
26 27 27 27 29 27 28 26 28 29 31 34 30 31 32 29 29 33 28 27 24 24 25 25 26 30 31 37 42 46 50 47 49
24 24 25 24 27 25 25 25 27 29 31 34 32 30 31 30 31 27 24 24 25 26 28 30 29 30 28 32 33 43 40 42 44

GFSFLT1_sfc_dewp_027.txt.gz
Dewpoint
63 63 61 61 60 59 59 58 59 58 57 58 60 61 61 64 59 56 56 56 58 57 61 61 62 62 62 63 64 65 64 63 62
65 64 62 61 60 60 59 59 58 60 61 61 60 60 63 60 58 56 55 54 60 60 58 61 63 63 62 62 62 63 63 62 62
65 64 62 62 61 61 61 60 61 63 64 64 63 64 64 61 57 56 56 58 61 61 60 60 61 63 63 64 63 62 62 62 62
63 65 64 63 63 62 63 63 62 62 63 64 66 66 66 63 60 59 57 59 61 61 61 61 61 61 62 64 63 63 62 62 62
65 66 66 64 63 63 61 62 62 62 63 64 66 66 66 63 61 60 58 62 62 61 61 61 61 61 62 63 63 63 64 65 63
62 64 64 66 64 62 62 63 63 65 65 65 65 64 63 62 60 59 60 63 63 62 63 63 61 62 62 62 62 63 64 64 66
59 61 63 64 64 64 63 64 65 65 62 61 62 59 61 61 59 58 62 63 62 62 64 64 63 61 62 63 63 62 63 63 66
58 59 59 59 61 60 61 60 62 61 61 59 58 58 60 59 59 59 63 64 63 64 65 65 65 64 63 63 64 63 64 63 65
55 55 57 58 59 58 59 58 57 58 59 58 56 56 56 57 57 58 62 65 64 63 65 66 66 66 65 64 65 66 66 65 65
57 57 57 57 58 57 57 58 58 58 58 58 58 57 57 56 57 57 60 63 64 63 62 63 65 65 65 65 65 65 65 65 66
59 59 60 60 60 59 59 58 58 58 57 57 55 55 54 54 54 54 54 60 60 61 61 62 62 62 62 63 64 65 64 64 64
60 60 58 58 58 54 51 46 48 48 47 45 47 51 51 52 52 52 53 53 57 59 53 54 58 60 62 62 62 63 63 64 64
55 45 44 46 46 45 43 44 44 43 43 42 42 42 42 43 44 45 45 44 39 46 51 52 51 53 55 57 58 59 62 62 63
43 43 42 43 43 43 41 42 42 41 41 37 37 40 37 41 41 40 33 32 36 39 46 50 51 49 48 50 52 53 53 56 56
41 40 38 40 41 39 37 37 36 37 37 31 36 33 37 40 36 33 26 33 34 36 35 38 39 44 41 44 46 46 47 47 49
35 37 35 35 36 33 31 34 33 34 34 35 30 34 34 31 29 22 34 31 33 29 26 28 24 24 39 40 42 46 47 48 48
29 31 32 30 32 29 28 29 31 33 32 33 32 30 32 32 24 31 29 31 28 26 24 22 22 25 26 32 42 42 43 45 49
28 27 27 28 30 28 26 27 28 29 32 33 31 28 29 26 31 25 31 28 26 26 23 25 25 25 30 35 35 40 41 45 47
25 25 25 25 28 24 26 25 27 29 29 33 32 30 30 29 26 31 23 27 26 24 26 26 27 30 30 31 36 35 39 42 45
23 22 23 23 25 23 23 24 24 26 29 30 32 28 29 29 26 20 22 25 24 24 25 26 28 28 24 24 28 35 37 40 42

GFSFLT1_sfc_dewp_030.txt.gz
Dewpoint
61 63 62 62 60 59 58 58 58 58 58 58 59 60 61 64 59 57 56 57 59 60 58 62 62 62 62 62 65 65 65 65 64
64 64 62 62 61 60 59 59 58 60 61 62 62 62 63 60 58 57 55 55 60 62 61 60 62 62 62 63 63 63 64 65 64
65 64 63 62 61 61 61 60 61 62 64 64 64 65 65 62 59 58 57 59 61 61 62 61 60 61 62 62 63 63 63 62 63
66 65 64 63 63 63 63 63 63 62 62 63 65 67 66 64 62 60 59 61 63 61 61 62 62 62 61 62 62 63 62 64 63
66 67 66 64 64 64 63 61 62 62 63 63 65 66 65 63 62 62 60 63 64 64 63 62 62 62 62 62 62 62 64 63 64
62 64 64 65 65 64 62 63 63 65 65 65 65 65 62 61 61 61 62 64 65 64 64 64 62 61 63 63 63 63 62 63 63
59 61 64 65 66 65 64 64 66 65 62 61 62 60 59 60 60 59 62 64 65 65 65 65 65 65 64 64 63 64 64 63 63
60 60 61 61 61 60 60 60 60 60 60 60 59 58 58 59 60 60 63 64 64 64 65 66 65 65 65 65 64 65 65 65 65
56 57 57 58 58 58 58 58 58 57 58 58 57 57 57 57 57 58 62 62 60 60 60 62 65 65 65 64 65 66 65 65 65
57 57 57 57 58 58 58 58 58 56 54 53 52 53 55 54 54 54 58 59 58 57 59 60 60 62 64 64 64 65 65 64 65
59 59 59 59 58 57 50 47 47 46 46 44 44 47 46 47 47 49 51 56 51 49 51 53 54 55 58 60 61 62 62 62 63
55 47 46 47 45 44 43 43 43 41 41 40 41 40 40 41 42 45 44 41 46 48 49 50 51 54 54 55 55 55 56 56 56
44 43 43 44 42 41 41 40 38 39 39 37 36 37 38 37 41 38 31 32 37 41 44 45 45 45 47 49 50 51 51 51 51
41 40 40 40 39 37 37 36 36 36 34 31 31 35 33 38 35 28 24 33 35 36 37 42 38 39 41 44 46 46 47 48 49
38 35 34 37 34 32 32 32 31 34 32 31 33 29 33 37 30 23 30 35 32 31 28 31 27 36 39 40 43 46 47 46 46
32 34 31 33 30 28 28 29 31 31 33 33 31 32 34 29 22 27 29 29 28 26 26 22 24 26 36 39 43 44 45 45 44
27 29 29 28 28 25 26 27 28 29 32 31 32 29 30 29 18 28 26 28 24 28 25 23 24 26 28 35 38 39 41 42 43
26 26 26 27 27 26 25 26 27 27 30 30 29 25 25 25 28 22 26 19 26 25 27 24 25 25 30 33 33 35 36 39 44
23 24 24 24 26 22 24 25 24 26 27 30 30 30 29 25 24 27 22 24 19 26 25 25 26 26 29 31 31 33 34 38 42
21 21 21 21 24 21 20 22 21 24 28 27 29 29 27 28 28 19 19 19 21 23 22 26 23 26 28 26 29 32 34 38 41

GFSFLT1_sfc_dewp_033.txt.gz
Dewpoint
63 63 62 62 60 59 58 58 58 57 58 58 58 59 60 63 59 58 57 57 59 61 61 60 62 62 63 62 63 65 66 66 65
62 64 63 62 61 60 59 59 59 59 61 62 62 63 64 61 58 57 56 55 61 61 62 62 61 63 63 63 62 63 63 64 65
65 64 63 63 62 61 61 61 60 61 63 63 63 64 65 63 60 60 59 60 63 62 61 62 62 61 61 61 62 63 63 64 63
66 65 64 63 63 63 63 63 63 63 62 62 64 66 66 64 62 62 61 62 64 64 63 62 62 62 62 62 62 62 62 63 63
67 67 66 64 63 64 63 62 61 62 63 63 65 65 65 62 61 62 61 64 65 65 65 65 64 63 63 63 63 63 63 62 64
62 64 65 66 64 64 64 63 63 65 65 65 65 65 62 60 60 61 62 64 65 66 66 65 65 64 65 65 65 64 64 64 63
60 61 64 65 65 66 64 64 66 65 62 61 62 60 59 58 59 60 63 64 65 65 65 65 65 64 65 65 65 64 64 64 64
59 59 59 60 61 60 59 59 58 58 59 59 59 58 57 57 58 59 61 60 61 61 61 62 62 63 64 64 65 65 65 65 66
57 57 57 58 58 58 58 58 58 57 57 55 53 51 54 54 54 54 56 57 57 56 57 59 59 60 61 63 64 65 64 64 65
56 56 58 58 58 58 57 53 49 46 45 43 44 45 45 44 47 49 54 50 49 52 53 54 55 56 58 59 60 60 61 61 62
59 56 54 48 48 46 45 44 43 41 40 37 38 39 39 39 40 44 39 46 45 48 51 51 53 53 53 54 54 55 55 56 56
47 46 46 44 43 42 40 39 38 36 35 32 33 33 36 34 40 35 28 36 43 43 46 47 47 47 48 49 50 51 50 50 51
43 43 42 40 38 37 36 34 33 33 32 30 30 33 31 34 34 25 27 35 34 36 42 41 40 42 44 46 46 47 47 49 50
38 39 38 35 33 32 33 32 32 31 30 29 32 31 30 38 25 22 30 33 31 29 33 35 34 37 40 42 45 46 47 47 48
34 33 33 32 29 29 28 29 28 32 30 30 30 28 31 34 23 25 27 31 28 27 26 25 26 34 37 39 43 44 44 44 45
30 31 30 29 26 25 25 27 27 29 31 29 29 31 32 29 22 27 24 25 23 28 25 26 24 27 35 35 40 42 41 43 43
26 28 27 25 25 24 24 25 26 27 30 30 31 26 25 28 20 26 27 21 24 26 20 26 23 25 28 30 37 37 39 41 41
25 25 25 25 25 24 24 24 24 24 27 29 24 19 21 27 26 21 26 19 25 20 26 26 23 26 24 31 33 34 36 38 42
23 23 22 23 24 21 22 22 22 25 25 27 26 28 29 22 20 25 20 22 15 22 26 24 25 25 25 32 32 33 34 38 41
20 20 20 20 22 20 20 19 19 23 25 25 26 27 26 26 25 17 18 15 15 19 21 24 24 23 26 29 29 32 34 38 40

GFSFLT1_sfc_dewp_036.txt.gz
Dewpoint
62 62 62 61 59 58 58 58 57 57 58 58 59 60 59 62 57 57 57 57 59 59 61 61 60 62 63 63 63 63 65 66 66
64 64 63 62 61 60 59 58 59 59 61 62 62 63 64 61 59 58 58 57 62 62 60 62 62 62 62 64 62 62 62 63 63
65 65 63 63 61 60 60 60 60 61 62 63 63 65 66 64 61 60 60 62 65 64 63 61 62 62 62 61 61 62 63 64 64
66 65 64 63 62 62 63 62 62 62 62 63 64 65 66 63 62 62 61 63 65 66 65 64 64 63 63 63 63 63 63 62 63
67 67 66 64 63 63 64 63 62 62 63 64 65 66 65 61 60 60 60 64 65 66 66 66 66 65 64 65 64 64 64 64 64
61 64 66 66 64 64 64 64 64 66 65 64 64 64 60 59 59 59 62 64 65 65 66 66 66 66 66 66 65 65 64 65 65
60 61 62 64 65 65 64 64 64 62 60 60 60 59 58 57 58 59 60 59 61 62 62 62 62 63 63 64 65 65 65 64 66
59 59 59 59 60 59 59 58 58 57 58 58 56 54 55 54 54 54 56 57 57 57 57 58 59 59 60 61 63 64 64 64 65
57 57 56 57 58 57 57 57 56 49 44 43 45 46 45 45 46 48 54 51 52 53 54 55 56 57 59 60 60 60 61 61 61
55 56 58 58 57 55 48 46 44 41 39 37 38 38 38 38 40 44 47 48 49 51 53 54 55 54 54 54 55 55 56 57 56
59 54 47 45 45 44 43 40 38 35 33 28 29 32 35 32 41 30 35 46 46 47 50 50 50 49 49 51 51 51 51 51 52
48 46 44 42 41 38 34 33 33 29 29 26 27 31 30 35 28 26 31 36 40 44 45 45 44 45 46 47 48 48 49 50 51
44 42 39 34 33 33 32 30 31 28 28 26 28 30 28 37 20 27 31 34 30 34 40 39 39 41 43 45 45 46 47 48 48
39 36 33 30 29 29 29 29 31 28 26 24 29 26 29 33 20 26 29 29 27 28 31 35 35 36 39 42 43 45 46 46 45
33 30 28 28 27 26 25 25 27 30 29 26 24 29 31 32 22 27 26 25 25 28 24 27 27 33 35 38 40 42 44 44 44
29 29 26 26 24 24 23 25 23 27 30 27 28 29 29 30 25 25 25 22 22 26 20 25 27 26 33 36 37 39 42 42 43
25 26 25 23 24 23 22 22 22 25 29 26 28 22 21 25 19 23 26 21 24 21 15 22 25 24 27 31 34 37 39 41 42
24 24 24 23 24 24 23 22 23 23 25 29 22 14 15 26 24 23 27 19 22 17 20 23 23 23 26 29 30 35 36 39 41
23 22 22 22 23 21 22 20 21 23 23 24 24 26 28 19 18 23 19 20 15 17 21 22 23 25 25 29 32 33 34 38 41
20 20 20 20 22 19 18 18 19 22 22 23 24 24 24 24 24 16 18 16 15 16 19 22 20 21 24 27 30 32 35 38 40

GFSFLT1_sfc_dewp_039.txt.gz
Dewpoint
63 62 62 61 60 59 58 58 58 58 59 60 61 61 61 61 59 60 59 60 60 61 60 62 61 61 62 63 63 63 63 65 67
64 64 63 62 60 60 59 58 59 59 61 62 62 62 65 62 62 62 62 62 64 64 62 61 62 62 63 63 64 61 62 63 64
65 65 64 63 61 60 60 61 62 62 62 62 63 64 66 62 62 62 62 63 65 65 64 64 63 63 63 62 62 62 62 64 64
67 66 64 63 62 62 63 63 62 62 62 63 64 66 65 62 61 61 61 62 65 66 65 66 65 65 64 64 64 64 64 64 63
68 66 66 64 63 63 64 64 63 63 63 64 65 65 64 61 61 60 60 64 65 66 65 65 66 66 66 66 65 65 65 65 65
62 64 66 65 64 64 64 64 65 66 64 63 63 62 60 59 59 59 62 61 62 63 63 63 63 63 63 64 65 65 65 65 65
60 61 61 62 64 63 63 62 61 60 59 59 60 58 57 56 55 54 57 58 59 59 59 59 60 61 61 61 63 64 65 65 66
60 60 60 60 61 60 59 59 59 58 53 49 48 48 45 45 45 48 54 54 54 55 56 56 57 58 60 61 60 60 62 62 62
60 58 58 59 59 59 60 55 46 44 40 38 40 40 39 38 39 44 51 51 52 52 54 55 57 55 56 56 56 57 58 58 57
57 58 59 58 56 50 47 44 40 35 31 28 30 32 34 31 41 32 50 49 50 51 53 53 53 52 52 53 52 52 53 53 54
60 50 48 46 45 42 40 36 34 29 26 24 27 31 28 36 30 33 40 45 47 49 49 49 48 49 49 49 49 49 50 51 52
51 47 44 42 39 33 31 32 30 27 24 22 27 29 26 37 27 32 33 32 42 44 44 44 44 44 46 47 47 47 48 49 49
46 42 36 33 32 32 29 30 30 26 25 22 26 26 30 25 28 30 30 29 27 33 37 37 38 40 41 44 45 45 46 47 48
40 36 31 28 28 29 27 28 30 26 24 23 24 28 32 25 25 27 29 28 29 27 28 32 32 35 37 41 43 43 43 45 45
33 31 28 27 27 25 27 24 27 25 26 21 20 31 35 28 26 25 26 25 26 26 23 21 21 31 34 38 40 41 42 43 44
29 27 26 26 24 22 20 25 24 25 27 23 24 27 27 32 31 21 26 25 24 22 19 16 17 20 31 33 35 39 40 42 42
25 26 25 24 24 22 22 23 23 23 28 21 25 20 19 25 22 27 25 23 22 18 15 15 17 21 21 26 34 35 38 40 42
25 25 24 25 25 23 23 24 26 22 26 24 20 16 14 21 21 21 24 19 18 17 17 17 17 19 20 26 28 32 35 39 42
23 23 23 23 24 22 22 21 22 24 20 23 20 25 22 15 12 20 19 19 14 17 17 16 18 20 21 26 30 32 34 38 41
22 22 23 22 22 21 21 20 21 20 21 21 21 21 20 23 21 12 14 15 16 17 17 17 18 19 21 23 26 31 34 38 40

GFSFLT1_sfc_dewp_042.txt.gz
Dewpoint
63 63 63 61 60 59 59 58 59 60 61 61 61 61 62 62 59 60 59 60 62 63 62 61 62 62 62 63 63 63 63 63 65
64 64 64 62 61 61 60 60 60 60 61 63 62 63 64 61 59 60 61 61 64 64 64 63 62 63 63 64 63 65 62 62 63
65 65 64 63 61 61 61 62 62 62 62 62 63 64 65 59 59 60 61 62 64 65 65 65 65 64 64 64 63 62 62 62 64
66 66 64 63 62 62 63 63 62 61 62 63 64 65 65 61 60 60 60 64 65 66 66 66 66 66 66 65 65 65 65 64 64
68 67 66 64 63 63 63 63 63 63 64 64 64 63 63 59 60 60 60 64 64 64 64 64 64 64 65 65 66 66 65 65 65
64 64 66 65 63 63 64 64 65 64 63 62 62 62 59 58 59 59 58 59 61 61 60 60 61 62 63 63 64 65 65 65 66
59 61 61 62 63 62 62 61 60 60 59 59 60 56 55 55 55 53 56 57 58 57 57 57 58 59 61 63 61 62 63 64 64
56 58 57 59 60 59 60 60 59 56 51 50 49 49 48 48 47 49 52 53 54 54 55 56 59 57 57 58 58 58 59 59 59
58 57 59 60 59 60 60 54 48 45 43 41 42 41 41 38 38 44 50 50 50 53 55 55 55 54 54 55 54 54 54 55 56
58 57 58 59 58 53 50 45 41 42 38 33 31 32 32 30 35 34 50 49 50 52 52 51 51 51 51 51 51 51 52 53 53
59 56 52 48 46 44 45 43 40 36 30 26 26 28 27 30 32 33 40 48 48 49 48 47 47 47 47 49 49 49 49 50 51
56 51 49 46 43 39 38 36 33 30 27 26 24 26 23 32 30 33 32 35 43 42 42 41 40 42 43 45 46 46 47 48 48
50 45 41 39 39 36 32 31 32 29 27 25 25 25 26 28 29 32 29 30 27 32 36 37 37 38 40 42 44 44 44 44 46
46 41 36 34 33 32 28 30 28 27 25 23 22 28 32 28 24 28 27 29 30 27 25 28 27 31 37 40 41 42 42 43 44
38 36 32 31 30 29 28 27 26 24 24 19 19 29 33 28 28 27 22 26 27 26 24 21 20 26 31 35 37 41 42 42 43
33 33 30 30 27 24 23 25 25 25 25 23 23 26 26 32 31 27 24 25 23 21 18 16 17 17 28 30 34 39 40 41 42
30 30 29 27 25 24 23 24 25 24 26 21 25 22 20 25 28 21 24 20 21 18 17 17 17 18 20 25 32 34 37 40 42
30 29 27 27 26 25 25 26 26 24 25 23 21 19 18 18 20 21 18 20 17 17 19 18 17 18 19 24 26 30 35 39 42
26 26 25 25 24 24 23 21 22 24 22 24 18 23 18 14 13 17 17 17 15 18 18 17 17 19 20 25 28 30 33 38 41
25 24 25 23 23 23 23 22 21 19 22 21 21 20 18 18 18 15 14 15 17 17 17 17 18 18 19 21 24 29 34 38 40

GFSFLT1_sfc_dewp_045.txt.gz
Dewpoint
62 63 62 61 60 60 59 60 61 61 63 63 62 61 62 65 59 58 60 60 64 64 62 62 61 62 63 62 62 64 64 63 64
64 64 64 61 61 61 61 61 61 62 61 62 63 65 64 60 58 58 60 62 63 65 64 64 65 64 64 64 65 63 64 64 63
65 65 64 63 62 62 62 62 62 62 62 62 63 64 65 60 58 59 60 63 64 65 65 65 66 67 66 65 64 65 63 63 63
66 66 65 63 62 62 63 63 62 61 62 63 64 64 64 61 59 59 60 65 65 65 65 65 64 65 65 66 66 66 65 66 66
68 67 66 64 63 63 64 64 63 64 64 64 63 63 64 60 58 60 59 61 62 62 62 61 62 63 64 63 65 65 66 66 67
64 65 67 65 64 64 64 64 64 63 64 62 61 63 58 57 58 57 59 59 60 60 59 59 60 61 62 63 63 63 64 65 65
61 62 64 64 64 63 62 61 61 62 59 60 61 54 52 52 52 52 55 55 56 56 57 57 60 60 60 60 60 60 61 61 60
56 58 57 59 60 60 60 61 59 54 51 51 51 50 48 48 48 50 52 52 52 53 55 58 57 56 55 56 56 56 56 57 57
55 56 58 59 58 58 60 54 51 48 46 44 42 42 42 40 40 48 52 52 53 54 55 54 54 53 53 54 53 52 53 54 55
57 56 57 57 58 56 53 50 47 46 42 39 35 34 34 32 36 42 52 51 53 53 52 50 50 50 50 50 50 50 51 51 52
58 58 57 54 52 50 49 47 44 41 36 32 28 29 31 29 34 36 44 49 49 47 47 45 44 44 44 45 46 47 48 49 49
59 56 54 52 49 46 44 41 37 33 32 30 28 27 26 29 29 35 36 42 43 41 41 40 40 41 43 44 45 45 46 46 46
57 54 50 47 46 43 39 35 34 33 30 28 31 28 29 29 27 32 32 37 32 38 34 33 34 35 40 43 44 44 44 44 45
53 50 44 43 41 38 33 33 30 30 30 29 27 33 33 31 25 29 29 32 33 32 30 25 29 27 33 39 41 42 43 44 44
49 44 41 39 37 34 33 32 29 27 27 21 23 31 34 35 34 30 26 27 28 29 30 28 26 29 27 34 36 39 42 42 42
45 41 38 37 34 31 29 29 29 29 27 30 31 32 31 34 34 34 28 28 27 25 24 22 22 21 29 30 31 38 39 41 42
39 38 36 32 30 28 27 29 29 28 28 25 31 31 29 30 32 31 26 24 26 23 21 20 21 23 24 28 31 32 36 41 42
40 40 33 33 33 32 31 31 33 30 29 26 26 26 26 23 26 25 24 23 25 23 23 22 21 21 22 26 28 30 34 38 42
35 33 31 30 31 29 28 25 25 30 26 28 20 28 22 19 18 25 22 22 17 21 22 21 21 22 24 26 28 29 31 37 41
29 31 32 30 29 26 27 25 24 21 25 24 24 22 22 21 21 20 21 20 21 21 21 20 21 21 23 25 26 28 32 37 40

GFSFLT1_sfc_dewp_048.txt.gz
Dewpoint
63 63 61 61 61 60 61 61 62 63 63 63 63 62 63 66 61 59 61 62 64 64 64 63 63 62 62 63 63 63 64 64 63
64 64 62 62 61 61 62 62 62 63 63 63 64 64 65 61 59 59 62 62 64 65 65 65 66 66 65 65 64 65 64 64 64
65 65 63 62 62 63 63 63 63 63 63 63 64 64 65 61 60 59 63 65 65 66 64 66 65 66 66 66 66 65 65 65 64
66 66 64 63 63 64 64 63 62 62 63 63 64 65 65 62 61 59 60 64 63 64 63 63 63 64 64 65 66 66 66 66 66
68 67 66 64 64 64 64 64 64 63 64 64 64 64 64 61 58 58 59 62 62 61 60 61 61 62 64 64 64 64 65 66 66
66 65 66 66 65 64 65 64 65 66 65 64 63 63 60 55 56 55 59 59 58 58 59 59 61 62 61 61 61 62 62 62 61
63 65 66 66 66 65 65 63 64 63 60 61 62 58 50 51 52 53 56 55 56 56 57 60 59 58 58 58 57 57 57 58 58
60 61 61 62 63 62 63 61 59 51 50 50 49 47 46 45 49 51 53 52 51 54 59 56 56 55 55 55 55 54 55 55 56
54 59 58 59 58 60 58 53 49 48 46 41 38 37 39 35 45 51 53 52 51 57 55 54 53 52 52 52 52 52 52 53 53
56 57 58 58 56 55 53 49 47 45 40 38 33 30 32 29 40 48 56 55 54 53 51 50 48 47 47 47 47 48 48 49 50
58 57 56 54 52 51 51 47 43 40 33 31 29 28 29 28 30 44 50 51 49 48 46 45 44 44 45 45 45 46 47 48 48
59 56 54 52 49 47 43 40 36 34 33 31 28 26 25 26 28 35 43 45 46 41 40 39 39 40 42 45 45 45 46 46 46
57 55 53 48 47 43 39 36 35 32 31 29 29 27 29 29 28 31 34 38 36 38 35 32 33 33 37 41 44 44 45 45 46
54 51 46 45 43 38 35 32 31 30 30 27 24 29 31 29 25 28 28 28 30 31 30 29 32 30 34 36 40 41 43 44 45
52 46 43 41 38 35 35 31 29 29 28 24 25 30 32 30 30 28 27 29 26 27 25 25 25 31 32 35 37 38 42 42 43
45 44 39 38 36 34 30 30 30 29 28 28 28 30 29 32 30 31 29 27 26 22 22 22 22 23 30 31 33 37 37 40 43
43 40 36 33 30 28 28 30 29 29 27 24 28 27 27 28 29 32 25 22 22 21 19 19 19 21 23 27 31 32 36 39 42
47 46 40 32 34 33 31 31 30 30 27 24 26 24 24 22 25 23 26 20 23 20 21 21 20 20 21 27 27 29 33 37 41
43 44 38 33 33 30 28 28 26 29 26 27 24 25 22 20 18 23 21 20 18 20 22 20 20 20 22 28 29 29 32 35 40
40 35 35 31 31 27 26 25 23 24 27 25 24 22 23 21 20 20 21 21 21 22 22 20 21 20 21 24 26 28 31 35 39

GFSFLT1_sfc_dewp_054.txt.gz
Dewpoint
62 61 61 64 65 65 64 64 64 64 63 63 62 63 63 62 59 60 62 62 64 63 61 62 65 65 64 63 63 63 64 63 64
62 62 62 62 63 64 64 64 64 63 64 64 63 63 63 60 60 61 62 63 65 64 66 66 65 66 66 67 66 64 64 64 62
62 63 62 62 63 63 63 63 63 63 63 63 63 63 64 61 61 62 63 65 64 64 64 64 65 64 65 66 67 67 67 66 67
64 63 63 63 64 64 64 63 63 63 63 63 63 64 64 60 61 60 61 65 63 62 63 62 62 65 64 64 64 64 64 64 64
66 65 65 64 64 64 64 63 63 64 63 63 64 63 63 59 58 59 61 63 60 61 60 63 63 63 62 61 60 60 61 61 61
66 65 65 66 65 65 65 64 64 66 65 65 63 60 56 55 54 56 62 59 59 59 62 61 60 60 59 58 58 58 58 59 60
65 64 65 66 66 66 65 65 66 64 61 61 59 48 52 51 52 53 58 54 56 61 60 58 58 57 57 56 55 55 56 56 57
64 63 64 64 64 63 65 63 60 54 58 51 42 41 48 48 50 55 58 54 57 58 56 56 55 54 53 52 52 52 52 53 53
62 63 62 61 62 60 61 59 51 47 44 38 35 33 39 45 46 52 55 53 60 56 54 52 50 49 48 48 48 48 49 50 50
62 61 60 60 60 59 59 53 47 38 32 30 29 31 32 43 48 53 59 59 56 54 50 48 48 47 46 47 47 47 48 48 48
59 58 58 58 58 57 53 48 42 33 31 27 27 27 30 42 47 51 54 56 52 49 46 43 42 42 43 45 46 46 47 48 48
57 57 57 55 53 51 44 37 34 32 29 27 26 25 25 32 44 47 46 48 50 43 40 38 38 38 40 42 43 44 46 46 46
56 56 54 51 48 43 39 35 32 31 29 26 27 27 29 28 42 43 40 39 39 39 36 34 34 36 38 40 43 42 42 44 45
56 55 52 49 44 39 36 33 31 28 27 26 24 29 31 29 33 38 36 36 35 31 34 35 33 32 34 37 39 41 40 42 42
56 53 49 43 39 36 32 29 29 27 25 23 27 30 33 29 30 29 28 31 29 28 24 23 25 29 29 31 35 38 39 39 41
53 49 43 39 37 34 29 29 25 25 26 26 27 31 30 29 30 30 28 28 26 23 21 21 21 22 28 28 32 34 36 38 39
54 46 41 37 34 31 30 30 29 27 26 24 29 27 25 28 28 32 29 26 24 21 19 19 19 20 22 26 31 30 32 36 39
52 46 42 38 35 32 30 31 30 27 26 25 27 25 22 22 23 26 24 21 22 21 22 20 20 20 20 26 28 32 31 35 39
50 46 43 43 40 32 32 32 34 32 25 26 24 25 23 15 11 20 23 22 19 20 21 21 21 20 23 27 31 34 34 35 39
49 45 42 43 41 36 35 35 34 30 29 27 26 23 24 21 18 14 20 22 21 21 21 21 21 21 22 25 30 33 34 37 39

GFSFLT1_sfc_dewp_057.txt.gz
Dewpoint
62 62 64 65 67 66 66 65 64 64 63 61 62 64 62 61 59 58 61 62 64 62 63 67 67 65 65 66 63 63 64 64 64
61 61 63 65 65 65 65 65 64 64 64 64 63 62 63 60 61 62 62 63 66 66 65 66 66 66 66 67 67 66 65 65 64
62 62 62 64 64 64 64 64 64 63 63 63 63 64 63 61 62 62 62 66 64 64 65 64 64 66 65 66 65 65 66 66 66
63 62 62 63 64 64 63 63 63 63 63 63 63 64 63 60 60 60 61 66 63 63 62 64 65 64 63 63 61 61 62 63 64
64 65 65 64 64 64 64 63 63 63 63 63 63 63 62 58 58 59 61 62 62 61 63 63 63 62 61 60 60 60 60 60 61
65 64 65 66 65 64 64 64 64 65 64 64 62 58 58 55 55 57 62 60 60 62 62 60 61 60 58 58 57 57 57 58 58
65 63 65 66 66 66 65 65 66 64 61 59 51 53 52 52 52 53 59 55 60 61 59 59 58 57 56 55 55 55 55 55 55
64 63 63 63 64 63 65 63 60 57 58 44 42 49 48 49 50 54 59 54 62 58 57 55 54 53 52 51 51 51 51 52 52
62 62 61 61 62 60 61 59 53 48 48 37 36 39 45 45 46 50 55 57 59 57 53 52 50 50 49 49 49 49 49 50 50
62 61 61 60 60 59 59 56 46 38 33 31 31 31 41 43 50 54 60 60 57 54 51 49 48 46 46 47 48 48 48 49 49
62 60 60 59 59 59 58 51 41 33 29 27 28 29 40 45 50 52 54 57 53 50 47 44 43 42 43 45 45 46 48 48 48
61 60 58 58 58 56 51 40 34 32 29 26 25 25 31 43 48 48 48 48 52 45 42 40 39 40 41 42 44 44 45 46 46
59 58 57 56 54 49 41 36 33 31 29 26 27 28 28 34 44 44 42 39 39 39 38 36 36 36 37 40 42 43 41 43 44
57 57 56 52 47 43 37 34 32 30 27 26 26 29 30 32 41 39 37 37 35 31 35 35 33 32 34 36 38 40 40 41 42
56 55 53 49 43 39 35 31 29 28 25 24 27 30 32 30 35 36 31 35 31 28 25 23 25 32 30 31 34 38 39 39 40
56 54 51 46 42 38 32 29 26 25 26 27 28 30 30 28 30 30 29 29 27 24 21 22 21 22 32 32 32 35 36 37 39
56 53 49 44 39 33 30 30 29 26 26 24 28 26 26 29 28 32 29 27 25 21 20 20 20 21 22 27 35 36 35 36 39
56 53 48 42 40 37 37 33 30 27 25 26 28 25 23 24 22 26 24 23 22 22 21 21 20 20 21 26 29 35 36 38 40
55 53 48 46 48 43 44 41 38 32 27 27 24 24 24 17 12 20 22 21 19 19 21 21 21 21 24 29 34 34 36 38 41
53 51 47 45 46 46 44 44 41 33 32 31 27 23 24 21 17 12 18 22 22 21 21 21 21 21 23 24 29 32 35 38 40

GFSFLT1_sfc_dewp_060.txt.gz
Dewpoint
63 64 65 67 69 68 68 67 66 64 63 62 64 64 63 61 59 58 61 62 64 65 66 66 67 66 66 67 62 63 64 64 63
62 64 65 65 66 66 66 65 65 64 64 63 64 63 63 60 60 61 61 63 65 66 66 65 66 67 67 66 67 67 67 67 67
62 63 65 65 65 65 65 64 64 64 63 63 63 63 63 61 61 61 62 65 64 65 64 64 65 65 64 63 63 64 65 66 67
62 62 63 65 65 65 64 63 63 63 63 63 64 64 63 60 60 61 62 65 64 63 65 64 64 62 62 62 61 61 61 63 63
64 64 64 64 64 64 64 63 63 64 64 63 63 63 62 58 58 59 61 63 62 63 64 63 62 61 60 60 60 59 60 60 60
63 64 65 66 65 64 64 63 64 65 65 63 59 59 57 55 55 57 63 61 61 63 61 61 60 59 58 57 57 57 57 57 57
64 63 65 66 66 66 64 65 66 62 60 54 55 54 53 52 52 53 59 58 63 61 60 59 58 56 55 54 54 54 54 54 53
63 62 62 62 63 63 64 63 60 58 56 44 50 49 49 49 50 54 60 58 61 59 57 55 54 53 52 52 52 51 52 52 52
62 62 61 61 61 60 61 59 52 56 44 39 41 45 46 44 45 48 54 61 59 57 54 52 51 50 50 50 50 51 51 51 51
61 61 61 60 60 59 59 56 46 40 35 33 32 37 41 43 50 54 61 61 57 53 52 51 48 47 48 49 48 48 50 50 50
62 61 60 59 59 58 58 53 40 33 29 28 30 33 41 47 50 52 55 58 54 51 48 46 45 44 45 45 46 46 48 48 48
62 61 59 59 58 58 54 44 34 32 28 25 25 30 39 46 48 49 48 49 53 47 44 43 41 42 42 44 44 44 43 44 45
60 60 60 59 57 56 49 38 34 32 30 27 27 27 29 41 45 45 42 40 39 42 41 39 38 37 38 40 41 41 42 42 43
60 60 59 57 54 51 43 35 34 31 28 27 27 30 29 37 43 41 37 38 34 33 40 38 35 33 34 36 37 39 40 40 41
59 58 57 55 50 45 38 34 30 30 27 24 27 31 31 32 40 38 35 36 31 30 27 23 25 35 32 33 35 37 38 38 39
57 57 56 53 49 45 37 32 28 26 26 28 28 30 31 28 31 33 29 31 28 24 21 22 21 22 32 34 34 37 38 37 38
57 56 55 52 47 39 34 31 29 26 28 26 28 25 27 29 29 31 28 28 26 21 20 19 20 21 22 28 34 34 36 38 40
58 56 55 51 47 43 40 38 33 31 27 26 30 26 25 26 23 27 27 25 23 22 21 20 20 20 23 29 32 36 36 38 41
58 56 55 51 48 46 45 43 44 42 36 33 27 25 27 23 16 21 22 21 20 19 21 20 21 22 24 27 32 33 35 38 41
58 56 53 48 48 49 46 45 44 45 40 37 36 32 25 21 18 15 20 22 22 22 21 21 20 20 22 24 29 32 34 37 40

GFSFLT1_sfc_dewp_066.txt.gz
Dewpoint
64 63 68 69 69 68 69 68 64 63 65 65 65 64 63 62 61 62 64 65 67 67 67 67 67 68 67 67 66 63 64 64 63
64 64 68 69 69 69 68 66 64 63 65 65 64 64 63 59 61 63 64 64 65 65 66 66 65 65 65 65 66 67 67 67 67
64 64 68 68 68 67 67 66 65 64 65 64 64 63 63 59 59 61 63 65 63 65 65 64 63 63 63 63 64 63 64 64 65
64 65 65 66 67 66 66 65 64 64 64 64 64 64 64 60 59 58 61 65 65 66 65 64 63 61 61 61 61 61 61 62 62
64 67 67 66 66 65 64 64 64 64 64 64 64 64 63 59 60 59 61 62 64 64 63 61 60 60 60 60 60 59 59 59 59
61 63 66 67 66 64 64 64 65 65 64 63 63 63 59 58 58 58 64 62 63 62 61 59 59 58 57 57 57 56 56 56 56
56 61 65 66 66 66 64 66 65 63 57 57 60 58 58 57 56 55 59 64 62 61 60 58 56 55 54 54 55 55 54 55 54
57 59 61 61 63 59 62 64 60 59 56 55 55 56 55 54 53 54 57 63 61 59 57 55 54 53 53 53 53 53 53 53 53
58 55 58 59 58 58 59 59 59 59 55 53 53 52 52 51 50 50 55 63 59 57 54 53 52 52 52 52 51 52 52 51 51
61 60 58 57 58 58 59 59 57 58 54 50 50 49 47 46 45 45 60 63 58 55 54 51 50 50 50 49 50 50 50 50 50
61 62 62 58 58 58 58 58 56 55 51 47 44 45 44 43 46 48 56 60 58 54 52 49 47 48 47 47 47 47 47 47 48
62 61 62 62 57 57 58 58 55 51 48 45 40 40 41 43 46 48 51 54 56 53 49 47 45 45 45 44 44 44 42 43 44
61 61 61 61 61 58 57 57 53 50 45 42 39 38 41 41 43 46 47 47 45 49 48 46 42 41 41 42 41 40 40 40 42
61 60 60 61 61 60 58 56 54 51 46 42 39 37 36 40 40 43 44 45 43 41 46 45 40 38 37 37 37 38 39 38 39
61 59 59 60 61 61 60 55 53 52 49 38 36 37 36 35 40 41 40 41 41 39 39 37 34 37 35 35 35 37 39 39 39
61 60 59 59 60 61 60 56 52 48 47 40 39 37 36 34 37 40 39 39 38 36 36 31 28 30 35 33 33 36 35 37 39
62 61 60 59 59 60 60 57 52 50 44 45 45 42 36 33 33 37 37 36 36 33 32 28 27 28 26 31 32 32 35 38 40
63 63 63 62 59 59 60 57 53 49 43 44 47 43 43 36 34 34 36 34 35 32 30 28 26 26 26 31 35 34 34 36 39
64 64 63 63 62 60 60 57 54 53 45 40 35 38 38 36 33 31 33 33 31 32 30 26 26 26 28 30 33 32 33 36 39
63 63 63 62 61 60 59 57 54 54 51 45 40 37 34 30 35 35 29 30 30 30 29 26 24 25 26 28 30 30 32 35 38

GFSFLT1_sfc_dewp_072.txt.gz
Dewpoint
64 65 68 69 70 70 68 65 65 65 65 65 63 62 63 65 64 65 66 66 68 68 67 66 67 67 68 68 68 68 66 67 68
67 68 69 70 70 69 66 65 66 66 65 65 63 62 64 61 63 62 62 63 67 66 65 64 63 64 65 65 66 66 67 67 66
66 68 70 70 70 68 66 65 66 66 65 65 63 64 63 61 62 62 62 66 66 65 64 63 63 62 63 63 63 63 64 64 64
66 69 70 69 68 68 67 66 65 65 65 64 63 64 63 62 62 60 64 67 66 64 63 62 61 61 62 61 61 61 62 61 61
67 66 69 69 68 68 67 65 65 65 65 64 65 64 64 60 60 60 64 66 65 63 62 61 61 60 59 59 58 58 59 59 59
63 63 67 68 67 66 65 65 66 66 65 65 64 63 60 58 59 61 67 65 64 62 61 60 59 58 57 57 57 57 57 56 57
59 64 65 67 67 66 66 66 66 65 61 61 63 60 60 57 59 61 66 64 62 62 60 58 57 56 56 57 56 56 56 55 55
60 63 63 64 64 63 65 66 64 61 59 59 58 58 57 56 56 59 65 63 62 61 58 57 55 55 55 56 55 55 54 55 55
56 59 60 62 62 61 61 62 61 59 57 56 55 55 54 53 54 57 64 64 61 59 57 56 55 55 54 54 54 53 53 54 54
54 56 58 59 60 58 59 59 58 57 56 53 53 53 51 49 50 52 62 63 61 58 56 55 54 54 53 53 52 52 52 52 52
58 56 56 57 57 56 58 58 57 57 56 52 51 51 49 47 46 50 58 62 61 58 56 54 53 53 51 52 51 49 49 48 49
58 59 59 58 56 56 56 57 57 56 55 52 50 49 47 46 45 54 59 59 59 59 55 53 52 52 51 50 50 46 45 45 45
58 59 61 61 61 56 56 56 56 55 54 51 49 46 45 44 45 47 56 54 53 57 57 53 51 51 50 48 47 45 43 43 42
60 60 60 61 60 59 56 56 56 55 52 50 48 44 45 44 44 45 46 54 51 49 55 54 53 50 47 48 46 45 42 40 39
59 60 60 59 60 60 59 56 57 54 53 49 47 44 44 44 44 43 44 45 46 46 46 46 44 49 46 45 44 43 42 40 39
59 60 60 59 59 60 59 58 56 55 53 50 45 44 43 41 41 43 43 44 44 43 42 40 38 41 45 43 43 42 41 38 39
60 60 60 60 59 59 60 59 58 55 54 50 45 42 43 41 40 40 41 41 43 41 40 39 36 37 39 39 41 40 36 39 41
63 61 61 61 60 60 60 60 59 56 53 49 48 47 46 40 41 38 41 40 41 40 38 37 32 34 35 39 39 38 40 38 38
64 64 63 62 61 60 60 60 60 58 54 53 49 49 45 41 36 38 37 39 38 38 37 34 31 29 36 37 40 40 36 35 36
63 64 62 63 63 62 62 60 60 60 57 52 51 50 46 43 41 35 36 37 37 38 35 33 30 29 34 36 40 38 33 33 35

GFSFLT1_sfc_dewp_075.txt.gz
Dewpoint
65 67 68 70 70 69 66 66 66 66 65 63 63 64 65 66 64 64 66 66 68 67 66 65 67 68 68 68 68 67 68 68 68
66 67 70 71 70 68 67 66 66 66 65 63 63 63 64 62 62 62 62 65 66 64 64 63 64 64 66 66 67 67 67 67 67
68 68 70 71 69 67 66 67 66 66 65 63 63 63 64 62 61 62 64 67 65 63 63 62 62 62 62 63 63 64 64 64 64
68 69 70 70 69 68 67 66 66 65 65 63 63 64 64 61 61 64 65 67 64 63 63 62 62 62 61 61 61 61 61 62 62
68 69 69 70 69 68 68 66 65 65 65 64 65 64 63 60 60 63 66 66 64 63 62 61 61 60 59 59 58 59 59 59 59
63 65 68 69 69 68 66 66 66 66 65 65 63 63 60 59 60 63 67 65 63 62 61 60 59 59 58 58 58 57 57 57 57
62 63 67 68 67 67 66 66 67 65 62 62 62 60 59 58 60 64 66 64 62 61 59 59 57 58 57 57 57 56 56 56 56
62 63 64 64 63 64 65 66 64 62 60 59 59 58 58 57 59 65 66 63 62 61 58 57 57 56 57 56 56 55 55 55 56
61 62 62 62 63 62 62 63 62 61 60 58 57 57 56 55 57 63 65 64 62 60 58 57 56 56 56 55 55 54 55 55 54
58 59 61 62 62 61 61 61 61 60 58 56 55 54 52 53 54 58 63 64 63 60 58 57 56 56 55 55 54 53 54 54 53
55 57 58 60 60 60 59 59 59 58 57 54 52 51 50 48 51 55 62 63 62 59 58 56 56 55 54 54 52 52 51 52 51
57 56 56 58 58 57 58 58 57 57 56 54 51 50 47 46 48 52 59 61 61 61 58 56 55 55 54 54 52 50 49 48 48
58 59 58 57 57 56 56 56 56 55 55 53 50 48 47 45 45 55 58 58 56 60 60 57 55 54 54 54 53 49 47 47 45
58 59 60 60 60 58 56 56 56 55 53 52 50 46 45 44 45 49 57 55 54 53 58 58 56 55 53 52 51 49 46 45 43
58 59 60 61 60 60 57 55 56 55 53 50 49 46 44 45 45 44 50 55 52 50 51 52 51 55 53 51 50 50 46 43 42
58 59 60 59 60 60 59 56 55 55 53 49 46 44 44 42 44 44 44 47 50 48 48 46 43 47 53 51 49 48 47 44 42
59 59 59 60 59 60 59 58 56 56 53 50 44 42 42 43 41 41 42 43 45 45 44 41 38 40 43 43 48 46 45 42 41
63 61 60 60 60 59 60 59 58 56 55 50 47 45 44 42 41 40 40 41 43 43 42 40 37 37 39 44 46 45 41 41 43
63 63 62 60 60 59 59 60 60 57 55 54 50 50 48 42 40 42 43 43 41 42 40 39 35 35 37 41 42 42 41 40 39
63 63 62 62 61 60 59 59 59 59 57 55 52 52 51 46 43 42 43 43 43 43 40 37 33 33 36 38 41 42 38 36 36

GFSFLT1_sfc_dewp_078.txt.gz
Dewpoint
66 66 70 71 69 67 66 66 65 64 64 64 65 66 67 65 64 66 67 66 67 66 65 65 67 68 68 67 68 68 68 67 65
66 68 70 70 69 68 66 66 65 65 64 64 64 64 66 62 62 63 65 64 65 64 64 64 63 65 67 67 67 67 67 67 67
66 69 70 70 68 67 67 67 65 65 64 63 63 65 64 62 62 64 65 66 64 63 63 62 62 62 62 63 64 65 65 65 65
67 69 71 70 69 69 68 67 66 65 64 63 63 64 64 61 63 64 65 66 63 63 62 62 62 61 61 62 61 62 62 62 62
68 69 70 70 69 68 68 67 66 65 64 64 63 63 63 61 63 64 65 65 63 63 61 61 60 60 59 59 59 59 60 60 60
66 67 68 69 69 68 67 67 67 67 65 64 64 62 59 59 62 64 67 64 63 62 61 60 59 58 58 58 58 58 58 58 58
62 66 67 69 68 68 67 67 67 65 62 61 62 59 58 59 61 64 67 64 63 61 59 59 58 58 57 57 57 57 57 57 57
61 62 65 65 64 64 65 65 64 61 59 59 59 58 58 59 61 65 66 64 62 61 59 58 57 57 57 56 56 55 55 56 56
60 61 62 62 62 62 62 63 62 61 60 58 57 56 57 57 59 63 65 65 63 61 59 58 57 57 57 56 55 55 55 55 55
60 61 61 61 61 61 61 61 61 60 59 59 58 56 55 56 57 61 63 65 64 61 59 58 57 57 56 55 54 54 55 54 54
59 59 60 61 61 61 60 60 60 59 59 58 56 55 52 54 54 59 62 64 64 61 59 58 58 57 56 55 54 54 54 53 53
57 58 58 60 60 61 60 59 59 59 58 56 53 52 50 49 51 54 60 62 62 62 60 58 57 57 56 56 54 52 52 51 51
56 56 57 58 58 59 58 58 57 57 57 56 54 51 49 46 47 51 58 59 59 61 62 59 57 57 56 56 54 52 50 49 48
57 58 57 57 57 57 56 56 56 56 55 55 53 49 48 47 45 50 55 58 57 56 59 60 59 58 56 55 55 53 50 49 47
58 58 59 59 58 58 56 55 56 56 55 53 51 49 46 46 45 45 55 56 56 54 54 56 55 58 57 55 55 53 50 47 45
58 58 59 60 60 58 59 56 55 55 54 50 48 46 45 43 45 45 46 54 55 53 52 52 50 52 57 56 53 53 51 47 45
58 58 59 59 59 59 59 58 56 55 53 51 46 47 46 44 43 43 44 44 51 52 50 49 46 46 49 50 55 52 50 49 45
61 59 59 60 60 59 59 59 57 57 55 52 51 45 45 44 43 42 41 42 44 47 47 46 43 42 43 47 50 51 48 46 43
63 63 61 60 60 59 59 59 59 56 55 54 55 50 47 45 44 42 47 46 44 44 44 43 41 39 41 44 46 47 42 40 41
62 62 62 61 60 59 59 60 59 59 59 55 52 51 51 47 46 47 44 46 46 46 46 47 46 45 44 44 44 42 42 42 42

GFSFLT1_sfc_dewp_081.txt.gz
Dewpoint
67 69 71 70 69 66 65 64 64 65 65 65 67 68 67 66 65 66 66 65 66 65 65 66 67 68 67 67 68 68 67 64 65
66 69 70 69 68 66 66 65 65 65 65 64 66 67 65 62 63 64 64 63 64 64 64 63 63 64 67 67 67 67 67 67 67
67 68 70 69 68 67 66 65 64 64 64 64 65 66 64 62 63 64 64 66 64 63 63 62 62 62 63 64 64 64 65 65 65
68 69 70 69 69 68 67 66 64 64 63 63 64 65 64 62 64 64 64 66 63 62 62 62 61 61 61 61 61 62 62 61 61
68 69 70 70 69 69 68 67 65 64 64 64 64 64 64 61 63 64 64 65 63 62 61 61 60 59 59 59 59 60 60 60 60
65 67 69 69 69 68 67 66 67 67 66 65 63 61 60 60 63 64 67 64 63 61 60 59 58 58 58 57 57 58 58 57 58
65 66 68 69 68 68 67 66 67 65 61 60 62 59 58 59 61 63 67 64 63 61 60 58 58 57 57 56 56 56 57 56 57
62 64 65 65 65 65 66 65 63 60 59 59 58 58 57 59 61 64 67 64 63 61 59 57 57 57 56 56 55 55 55 56 56
60 61 62 63 63 62 62 62 62 60 59 57 56 56 57 58 60 62 65 66 63 62 59 57 57 57 56 55 54 54 55 55 54
60 60 61 61 61 61 60 61 61 59 59 59 58 57 56 55 58 60 63 65 65 62 60 59 57 57 57 55 54 54 54 54 54
59 60 60 60 60 60 60 60 60 59 58 58 58 57 56 54 57 59 61 64 65 63 61 60 58 57 57 56 54 54 54 54 53
58 59 59 60 60 60 60 59 58 58 58 57 57 55 54 51 54 56 59 61 63 64 61 60 59 58 57 56 55 54 53 53 51
57 58 58 59 59 60 59 58 58 57 57 57 57 54 51 49 50 52 57 59 60 62 63 62 59 58 58 57 56 54 52 51 50
56 56 57 57 58 58 58 57 57 56 56 56 56 54 51 49 46 48 52 57 59 58 60 62 61 60 58 57 57 55 52 50 48
57 57 57 56 57 57 56 56 56 56 56 55 54 53 50 48 47 46 49 54 57 57 56 57 58 60 60 57 57 56 54 50 48
58 58 58 59 57 56 57 55 55 55 54 52 51 49 48 47 45 46 46 53 55 55 55 54 55 54 60 59 56 56 54 50 46
58 58 58 58 59 59 58 57 56 55 54 53 50 50 51 47 46 44 45 45 53 54 54 53 53 51 52 54 58 56 54 52 48
60 59 59 59 59 59 59 58 57 57 54 52 55 48 48 46 46 43 43 44 44 48 51 51 50 46 48 51 52 52 50 49 48
63 61 59 59 59 59 58 59 59 58 58 54 54 53 50 48 47 44 45 44 43 44 45 47 46 46 48 50 51 52 53 53 52
63 63 61 61 59 58 58 58 59 59 59 57 55 54 51 48 48 50 49 46 45 46 46 47 47 47 48 48 50 51 52 52 51

GFSFLT1_sfc_dewp_084.txt.gz
Dewpoint
69 70 70 69 67 65 64 65 66 66 66 68 68 68 68 67 65 65 66 64 65 64 64 64 68 68 68 68 68 67 64 65 67
68 70 70 68 67 66 64 65 65 65 65 66 68 67 66 64 64 63 63 63 64 64 64 63 62 63 66 67 67 67 67 67 67
67 70 69 68 67 67 65 65 65 65 65 66 67 65 64 63 63 63 63 66 64 63 63 63 63 62 62 65 64 63 64 64 64
67 69 70 68 68 67 66 65 65 65 64 64 65 65 64 62 63 63 63 66 63 63 62 62 61 61 62 62 62 62 61 60 60
69 69 70 70 69 69 68 66 65 65 64 64 64 64 64 62 63 63 64 64 63 62 61 60 60 59 59 59 60 60 60 60 60
66 67 69 69 69 68 67 67 66 65 65 64 63 62 60 60 62 63 66 63 63 61 60 59 58 58 58 57 58 58 58 58 58
65 65 68 69 68 68 67 66 66 63 60 60 61 59 58 58 61 63 66 63 62 61 59 58 58 57 56 56 56 57 56 57 57
63 64 65 65 65 64 65 64 63 60 58 58 57 58 56 58 60 63 66 64 62 61 59 57 57 57 56 55 55 55 56 56 56
60 62 63 63 63 62 62 62 61 60 58 56 55 56 56 58 59 61 65 66 63 62 60 58 57 57 56 55 54 54 55 55 55
59 60 61 61 61 61 60 60 60 59 58 57 57 57 56 56 56 59 62 65 66 63 61 59 57 56 56 55 54 54 54 53 54
59 59 59 60 60 60 59 59 59 59 57 57 57 57 57 56 55 57 60 64 65 64 62 61 59 58 57 56 54 53 54 53 53
58 59 59 60 60 60 59 58 58 58 58 56 57 57 56 54 53 55 58 60 63 65 63 61 60 59 58 57 55 54 53 53 52
58 58 59 59 59 59 59 58 57 57 56 56 57 57 55 52 50 53 55 58 60 62 65 64 61 60 59 58 57 55 53 52 51
58 58 58 58 58 58 58 57 57 56 56 56 56 56 55 53 49 48 51 54 58 59 61 62 62 62 60 59 58 57 55 51 49
58 57 57 57 57 56 56 56 56 56 56 55 55 55 54 52 50 48 47 50 55 57 57 57 59 61 61 59 58 57 57 53 51
59 58 57 56 56 56 56 55 55 54 54 53 53 52 51 51 49 48 47 47 52 54 56 55 55 56 61 61 59 58 57 55 51
60 59 58 58 57 57 56 56 54 54 54 53 51 52 52 49 48 47 46 45 49 53 54 54 54 54 54 56 60 58 56 58 54
59 59 59 58 59 58 58 57 56 55 54 53 56 51 50 49 49 44 44 44 45 47 51 53 53 52 51 54 55 56 56 58 58
61 60 59 59 59 58 58 58 58 58 58 55 55 54 52 52 50 46 44 45 43 44 45 48 49 48 50 52 53 55 55 55 57
62 62 61 59 58 58 58 57 57 58 57 55 54 52 52 50 50 51 52 47 45 44 44 47 48 48 48 50 52 54 54 56 56

GFSFLT1_sfc_dewp_087.txt.gz
Dewpoint
70 69 68 68 66 65 66 67 67 67 68 68 68 68 68 67 65 64 65 64 64 64 64 65 68 68 68 68 68 65 67 67 67
71 70 69 68 66 65 66 66 66 66 68 68 68 68 66 65 64 64 64 64 64 64 64 63 63 64 66 67 67 67 67 67 67
70 70 69 68 66 65 66 66 66 66 67 67 66 66 65 64 64 64 63 65 64 63 63 63 62 62 63 63 63 63 63 63 63
69 70 70 68 68 67 66 65 65 65 65 67 65 65 65 64 63 62 62 66 63 63 62 61 62 62 62 62 62 62 62 61 61
68 70 70 70 69 68 67 65 65 65 64 64 64 65 64 63 64 63 62 64 63 62 61 60 60 60 60 60 60 60 60 60 60
66 67 69 69 70 68 68 67 66 65 65 64 63 63 62 63 63 63 65 63 62 61 60 59 59 59 59 58 58 58 59 59 59
66 65 68 69 69 68 67 67 66 62 61 61 61 61 61 61 62 63 65 63 62 61 60 58 58 58 57 57 57 57 57 58 58
65 66 68 68 65 66 66 66 64 62 59 59 59 59 59 59 60 63 65 65 63 61 59 58 58 57 57 56 56 56 57 57 57
65 66 67 67 66 65 65 65 64 63 60 57 56 57 58 58 60 62 64 66 64 62 60 58 57 57 56 55 55 55 56 55 55
63 64 65 65 65 64 64 64 63 63 61 59 57 57 56 56 57 59 61 64 66 63 62 60 58 57 57 55 54 54 55 54 55
62 62 63 64 64 64 63 62 62 62 61 59 57 58 59 58 58 57 58 62 65 65 63 62 60 59 58 57 55 54 54 54 54
59 61 61 61 62 63 63 62 61 61 60 59 57 57 58 58 57 56 57 59 62 65 64 63 61 60 59 58 57 55 54 53 53
59 58 59 60 61 61 61 61 60 60 59 58 58 58 58 58 56 54 54 57 59 62 65 65 62 61 60 59 58 57 55 54 52
61 59 59 59 60 60 60 60 60 59 58 58 58 58 58 58 56 55 53 54 57 59 61 63 64 64 61 60 59 59 57 55 53
62 61 60 59 59 59 59 59 59 58 58 57 56 57 57 57 56 55 53 52 53 55 58 59 60 61 62 61 60 59 59 56 53
62 61 60 59 59 58 58 58 57 57 57 56 57 56 56 56 56 55 53 52 51 52 53 55 57 58 61 62 61 60 59 59 55
63 62 61 60 58 58 57 57 57 57 57 56 55 54 55 54 53 53 52 52 50 50 51 53 54 57 57 58 61 61 59 59 58
62 62 61 61 60 61 59 59 58 58 58 57 58 53 52 52 53 49 48 47 48 48 49 51 53 54 55 56 57 58 59 59 60
61 61 61 61 61 60 61 61 60 59 58 57 56 57 55 54 53 52 49 47 46 47 46 46 48 51 53 53 55 56 57 58 58
64 62 61 60 61 61 60 60 60 60 60 59 56 56 55 54 52 52 54 51 47 45 45 47 49 48 50 52 53 55 56 57 59

GFSFLT1_sfc_dewp_090.txt.gz
Dewpoint
69 67 66 67 68 67 67 67 68 69 68 68 68 68 68 67 63 62 63 61 64 65 65 65 66 68 68 68 68 68 68 68 66
69 68 67 65 66 67 67 67 67 68 68 68 68 68 67 62 61 61 61 62 64 64 64 64 63 64 65 65 66 66 66 65 64
69 68 68 66 65 67 67 66 66 68 68 67 67 66 66 60 60 60 61 65 64 63 63 63 63 63 63 63 63 63 63 63 63
70 69 68 67 65 66 66 66 66 66 67 66 65 65 65 60 60 59 60 65 63 63 62 61 62 61 62 61 61 62 62 62 61
70 69 69 69 68 67 66 66 66 65 65 65 65 65 65 60 61 60 62 64 63 62 61 60 60 60 60 60 60 60 60 60 60
65 68 68 69 69 68 66 66 66 65 65 64 65 64 60 59 60 60 65 63 63 61 60 59 59 59 58 59 59 59 59 59 59
60 66 68 69 69 69 68 66 65 62 58 59 61 59 59 59 61 61 65 63 63 61 59 58 58 58 57 58 58 58 58 58 58
60 63 68 67 65 65 65 64 62 60 55 57 57 58 58 58 59 61 64 66 63 61 60 58 58 57 57 57 56 57 57 57 57
59 60 63 64 64 64 64 62 62 62 59 53 52 55 56 57 58 60 64 65 65 63 61 59 58 58 56 56 56 56 56 56 56
61 62 62 63 63 62 62 61 61 61 60 57 52 52 53 55 56 57 62 63 66 65 63 61 59 58 58 56 55 55 55 54 56
60 61 62 62 62 61 61 59 58 59 59 58 54 53 55 57 57 57 57 62 64 66 64 63 61 60 59 58 56 55 55 54 54
60 58 59 60 59 59 60 60 59 57 57 56 55 52 54 57 57 58 57 58 62 64 65 64 63 62 60 59 58 56 56 55 54
61 60 57 57 59 59 59 59 58 57 57 56 57 57 56 57 57 57 57 57 57 62 65 65 64 63 62 61 60 59 57 56 55
62 61 60 58 59 59 59 59 58 58 58 58 57 58 58 58 57 57 57 57 57 57 62 63 64 64 62 62 61 61 59 57 55
63 62 62 61 60 60 60 59 59 58 57 56 56 57 58 58 58 58 57 57 57 56 57 57 58 62 63 62 61 61 61 58 56
64 63 62 62 61 60 60 59 59 58 58 57 57 58 58 58 58 58 57 56 56 55 54 55 55 56 62 63 62 61 60 61 58
64 64 63 62 62 61 60 59 58 58 58 57 57 56 55 56 56 56 55 54 54 53 53 53 53 54 55 57 61 62 61 61 61
65 64 63 64 63 62 62 61 60 59 60 59 58 55 54 55 55 54 52 51 51 50 50 50 52 52 53 57 58 58 59 60 60
63 63 63 63 63 62 64 63 62 61 59 60 58 59 58 55 54 55 54 50 49 49 49 49 49 50 52 54 54 55 57 59 60
64 63 63 62 62 62 62 62 61 61 61 61 60 59 57 56 55 54 55 54 49 47 47 48 49 50 50 52 53 54 56 57 59

GFSFLT1_sfc_dewp_093.txt.gz
Dewpoint
67 65 67 68 69 68 68 69 69 69 68 69 69 68 68 68 60 60 62 62 64 65 66 65 66 67 67 67 68 68 67 66 65
67 66 67 68 68 67 67 68 69 69 69 69 68 67 67 59 58 59 60 62 64 63 64 64 65 65 65 65 65 65 65 65 64
68 66 67 67 67 67 67 67 68 68 68 68 67 66 66 58 59 61 62 65 63 63 63 63 63 63 64 63 64 63 63 63 62
68 69 68 66 67 67 67 66 67 68 66 65 65 65 65 59 59 58 61 65 63 62 61 61 61 61 61 61 61 61 61 61 60
70 69 69 68 67 67 66 66 65 66 66 65 64 65 65 59 59 61 63 64 63 62 61 60 60 60 60 60 60 60 60 60 60
68 67 68 69 68 67 66 66 65 65 65 64 65 64 59 58 59 61 66 64 62 61 60 60 59 59 59 59 59 60 59 59 59
65 66 68 69 69 68 67 66 65 63 58 60 62 60 57 57 59 62 66 63 63 61 59 59 58 58 58 59 59 59 59 59 59
63 67 68 67 66 65 65 64 61 57 53 55 55 56 56 56 57 62 65 65 63 61 60 58 58 57 57 57 57 57 58 57 58
57 61 66 66 65 65 64 61 60 60 57 52 50 52 54 55 56 62 65 65 65 64 61 59 58 58 56 56 56 56 56 56 57
56 58 61 62 62 63 62 60 59 59 58 56 50 50 51 53 55 56 63 64 65 66 64 62 60 59 58 56 55 55 55 55 56
59 60 60 60 60 60 59 58 57 57 58 57 54 51 52 54 56 57 59 62 63 65 65 64 63 61 60 58 56 55 55 55 54
58 58 59 59 58 57 58 58 57 55 54 55 54 52 51 55 56 58 58 59 62 64 66 65 64 63 61 61 60 58 57 56 55
61 60 57 57 58 58 58 58 57 56 56 55 56 56 54 54 55 57 58 59 57 62 65 66 65 64 63 62 61 60 58 57 56
61 61 59 56 58 58 59 58 57 58 58 58 58 58 59 59 57 57 58 59 59 59 63 64 65 65 64 63 62 62 60 59 57
62 61 61 60 59 59 60 59 59 58 58 56 56 58 59 60 59 58 58 58 59 59 59 61 60 63 64 64 62 61 62 60 59
63 62 62 62 61 60 60 60 59 60 60 59 59 59 59 59 59 60 58 58 58 57 57 57 57 59 63 64 63 62 61 61 61
64 64 63 62 62 61 61 61 60 60 61 59 59 57 58 59 58 59 57 57 57 56 55 54 55 56 57 59 62 61 62 62 61
66 65 64 64 64 63 63 62 61 60 61 60 59 57 55 57 57 56 56 54 54 52 51 51 52 53 54 57 57 58 58 60 61
66 66 65 64 65 64 64 63 62 62 60 62 59 60 59 57 55 57 56 53 51 51 50 51 51 51 54 54 54 55 56 58 60
65 65 65 64 64 64 63 64 63 62 61 61 62 60 60 58 57 55 56 56 52 50 50 50 50 51 51 51 52 52 55 57 57

GFSFLT1_sfc_dewp_096.txt.gz
Dewpoint
66 67 68 68 68 68 69 69 69 69 69 69 68 67 68 65 59 61 63 61 64 65 66 66 66 66 67 67 67 67 66 65 64
67 67 69 69 68 68 69 69 69 69 69 68 67 67 67 59 59 61 62 60 63 63 63 63 65 65 65 65 65 65 64 63 62
66 67 68 68 67 68 68 68 68 68 68 67 66 66 66 59 60 62 63 65 62 62 62 62 62 62 62 63 63 63 62 62 61
67 68 68 67 67 67 67 68 68 67 66 65 64 64 65 59 60 61 62 65 62 62 61 61 61 61 61 61 62 61 61 61 61
69 68 68 69 68 68 68 67 68 67 66 65 64 63 64 60 61 63 64 64 62 62 61 61 60 61 60 61 61 61 61 60 60
67 67 67 68 68 68 67 66 66 66 65 65 65 64 61 59 61 63 66 64 63 61 61 60 60 60 60 60 60 60 60 59 59
66 66 67 68 68 67 67 66 66 63 60 60 62 61 59 58 61 64 66 64 63 62 60 60 60 59 59 59 59 59 59 59 59
67 67 67 67 66 66 66 64 61 58 56 59 58 57 56 57 59 64 67 65 64 62 60 60 59 58 58 58 58 58 58 58 57
65 66 67 66 65 65 64 63 62 60 57 54 51 53 55 55 59 63 65 66 65 64 62 60 59 58 57 57 57 57 57 57 57
57 64 66 65 64 64 64 62 60 60 58 56 52 49 50 53 55 61 63 65 66 65 64 62 60 60 58 57 56 56 55 56 56
58 59 62 62 63 63 61 59 58 58 58 57 53 51 51 53 55 58 61 63 64 65 65 65 63 61 60 59 57 57 56 56 55
59 60 60 60 59 58 58 58 57 56 55 54 54 52 50 55 56 57 58 60 62 64 65 65 65 64 62 61 60 58 57 56 55
59 59 58 59 58 58 58 58 57 56 56 55 55 55 52 52 55 56 57 58 58 62 65 66 66 65 64 63 62 61 59 58 56
61 61 59 56 58 58 59 58 58 57 57 57 57 58 58 57 57 57 57 57 58 59 62 63 64 65 65 64 63 63 61 60 58
62 62 61 58 59 59 59 59 59 58 58 57 56 57 58 59 59 58 58 58 58 58 59 61 61 63 65 64 63 63 62 62 60
62 62 62 61 59 59 59 59 59 59 59 58 58 58 58 58 59 59 58 58 57 56 56 56 56 59 62 64 63 63 63 61 61
63 63 63 62 62 61 60 60 59 59 60 58 58 56 57 58 58 58 57 55 55 54 53 52 53 54 58 57 59 59 60 62 62
66 65 64 64 63 62 62 61 60 59 59 59 57 54 54 55 56 54 54 53 52 50 50 50 51 51 53 55 55 56 57 59 60
65 65 65 65 64 63 63 63 62 60 59 60 60 59 58 54 53 55 53 51 51 50 50 51 50 51 52 53 53 54 56 57 58
65 65 64 64 64 64 64 63 63 62 60 60 59 58 58 57 55 53 53 53 50 49 49 49 49 49 49 48 51 52 54 56 56

GFSFLT1_sfc_dewp_099.txt.gz
Dewpoint
67 67 68 69 69 69 69 69 69 69 69 68 67 68 66 64 61 61 61 60 64 65 66 65 65 66 66 66 66 66 64 63 62
68 68 69 69 70 69 69 69 69 69 68 67 66 67 65 61 62 62 60 59 63 63 63 64 64 64 64 64 63 63 62 62 61
68 68 69 68 69 69 68 69 69 68 67 65 65 67 64 61 62 62 62 64 62 62 62 62 62 62 62 63 62 62 62 61 61
68 69 69 68 68 68 68 68 67 66 65 64 65 65 65 61 62 62 62 65 63 62 61 61 61 61 62 62 61 61 61 61 61
69 68 69 68 68 68 69 68 67 66 64 64 63 63 63 61 62 63 63 63 63 62 61 61 61 61 61 61 61 60 60 60 60
66 66 68 68 68 68 67 67 67 66 65 65 64 63 60 61 63 63 66 63 63 62 61 61 61 60 60 60 60 60 60 60 59
66 65 66 68 67 68 67 66 65 63 60 59 62 59 59 61 62 64 66 64 63 62 61 60 60 60 60 60 59 59 59 59 59
66 66 66 65 65 65 65 64 62 60 60 59 58 58 57 59 62 65 66 66 64 62 61 60 60 60 59 59 59 59 59 58 58
66 66 65 65 65 64 64 63 61 59 57 57 53 53 55 57 61 64 65 67 65 64 62 61 60 59 59 58 57 57 58 57 57
66 65 65 65 65 65 64 64 62 60 58 57 51 49 50 53 60 61 63 66 67 66 64 62 61 60 59 58 57 56 56 57 56
61 65 65 64 64 64 63 62 60 59 59 57 53 50 50 52 55 60 61 64 65 66 66 65 63 62 61 59 58 57 56 57 55
58 63 63 63 63 63 61 58 57 56 55 55 55 52 50 52 55 57 59 61 63 64 65 65 65 64 63 62 60 58 57 57 55
58 59 60 59 59 57 58 57 57 56 55 54 54 54 51 52 54 56 57 58 58 62 65 66 66 65 64 64 63 61 59 58 57
59 60 58 58 58 58 58 58 57 57 56 56 56 57 56 55 55 57 57 57 59 59 61 63 64 65 65 64 63 63 62 60 59
61 61 60 57 58 58 59 58 58 57 57 57 56 57 57 58 58 58 57 58 58 58 60 61 61 62 64 64 63 63 62 62 61
61 62 61 58 58 58 58 59 58 58 58 57 57 58 58 57 58 59 58 58 58 57 57 59 58 57 62 63 63 63 63 62 62
62 62 62 61 59 59 59 59 59 59 59 57 57 55 56 58 58 58 58 55 55 52 51 52 52 55 56 57 58 59 59 60 61
65 64 64 63 62 61 61 60 59 58 59 58 57 53 53 54 56 54 53 52 51 50 50 51 51 52 53 53 53 56 57 58 58
66 65 65 65 64 64 63 63 62 60 59 60 60 58 57 55 54 55 52 51 50 50 50 50 50 50 49 51 52 54 56 57 57
65 65 64 64 64 64 63 63 63 62 61 60 59 58 58 58 56 54 53 51 49 49 48 48 48 48 47 48 50 52 54 55 55

GFSFLT1_sfc_dewp_102.txt.gz
Dewpoint
67 67 68 69 69 69 69 70 70 69 69 69 67 66 65 63 60 60 61 60 64 65 64 64 65 65 64 63 63 63 62 62 62
67 67 69 69 70 69 69 69 69 68 68 66 66 65 64 61 61 60 59 59 63 63 63 63 64 63 63 63 62 62 61 62 62
68 69 70 70 69 69 69 69 69 67 66 66 66 65 64 62 61 61 61 63 62 62 62 62 62 62 62 62 62 61 61 61 61
68 68 69 69 68 69 69 68 67 65 65 65 66 65 64 61 61 61 62 64 62 62 62 61 62 62 62 61 61 61 61 61 60
69 68 68 69 69 69 68 67 66 65 65 64 65 65 64 61 62 62 63 64 63 62 62 61 61 61 61 61 60 60 60 60 60
66 67 68 68 69 69 68 67 66 65 64 63 63 62 61 61 62 63 66 63 63 62 62 61 61 61 61 60 60 60 59 59 59
65 66 67 68 68 68 67 66 66 63 59 58 61 59 60 61 62 64 66 64 63 62 61 61 61 60 60 60 60 59 59 59 59
64 64 65 64 64 65 65 64 62 60 59 59 57 58 59 61 62 64 67 65 64 62 61 61 60 60 59 59 59 59 59 59 58
64 63 63 63 63 62 62 61 59 58 58 57 58 54 56 60 62 63 65 67 65 63 62 61 60 59 59 58 58 58 58 58 58
65 64 64 63 63 63 62 62 61 61 59 56 51 50 53 59 61 62 63 66 67 65 64 62 61 60 59 58 58 57 58 57 57
65 64 64 63 64 64 63 63 63 62 59 58 54 50 50 53 60 60 61 64 66 67 66 65 63 62 60 59 58 57 58 56 56
64 64 64 64 64 63 63 62 59 58 56 57 57 53 50 51 54 59 59 61 63 65 65 65 65 64 63 62 60 59 58 57 56
59 63 63 63 62 62 61 58 57 56 55 54 54 54 52 51 53 56 58 59 60 62 65 66 66 65 65 64 64 62 60 59 58
59 60 61 60 59 58 58 57 57 56 56 55 55 56 55 53 53 54 56 57 58 58 61 63 64 66 65 64 64 63 62 61 60
59 60 58 58 58 58 58 57 57 57 57 56 57 57 57 58 58 57 57 57 58 58 59 60 61 62 64 64 64 63 62 63 62
60 60 60 57 57 58 58 58 58 58 58 57 57 57 58 57 57 59 58 58 58 58 58 59 58 57 62 62 62 62 62 61 62
61 61 61 60 57 57 58 58 59 58 59 57 56 54 55 57 58 58 58 57 55 52 52 52 55 55 56 56 57 58 59 59 60
64 63 63 62 60 60 60 60 60 59 59 58 56 53 53 54 56 54 54 53 52 50 51 51 52 52 51 52 53 55 57 57 58
65 64 65 64 64 63 62 63 62 61 59 60 60 59 58 56 54 55 52 51 50 50 50 50 49 49 48 50 52 53 55 56 57
64 65 64 64 64 64 63 63 62 62 61 60 59 59 58 58 56 54 52 49 49 49 48 48 48 47 47 49 50 52 53 55 56

GFSFLT1_sfc_dewp_108.txt.gz
Dewpoint
67 67 68 69 71 70 69 69 69 68 66 64 64 64 64 62 59 60 62 61 64 64 64 64 63 63 63 62 62 62 62 62 62
67 67 69 70 71 70 68 68 68 67 65 64 64 64 63 59 59 59 60 61 64 64 64 63 63 62 62 62 62 62 62 62 62
67 68 70 71 70 69 68 68 68 67 66 64 64 64 63 60 60 60 61 64 63 63 63 63 63 62 62 62 62 61 61 61 61
68 69 70 70 70 70 69 67 67 67 66 64 64 64 63 60 60 61 61 65 63 63 63 62 62 62 62 61 61 61 61 61 60
70 69 70 70 70 70 69 68 67 67 66 65 65 64 63 60 61 61 63 64 63 63 62 62 62 62 61 61 61 60 60 60 60
66 67 68 69 70 69 68 66 66 66 65 66 65 62 60 60 61 62 65 63 63 63 62 62 62 61 61 61 60 60 60 60 60
66 66 68 69 69 68 67 66 64 60 58 59 61 60 60 61 61 62 65 63 63 63 62 62 61 61 61 60 60 59 59 59 59
64 64 64 64 64 64 63 62 59 58 57 58 57 59 59 60 61 63 66 64 63 62 62 61 61 61 61 60 59 59 59 58 58
62 62 62 62 62 61 60 59 58 58 57 56 57 56 58 60 61 61 65 66 63 63 62 61 61 60 60 60 59 58 58 58 57
61 61 60 60 60 59 58 58 57 57 58 57 56 51 54 58 60 60 63 66 66 64 63 62 61 60 60 59 59 58 58 57 57
61 61 61 60 61 61 60 59 59 60 60 59 57 51 51 55 58 60 60 64 66 67 65 64 63 62 61 59 58 59 58 57 56
62 62 61 61 61 61 61 61 61 60 60 58 58 57 51 50 54 59 59 60 63 65 66 65 65 64 64 63 61 60 59 58 57
63 62 62 62 62 62 61 61 59 58 57 56 55 55 54 52 51 54 57 59 59 61 64 65 65 65 65 63 63 62 61 60 59
64 63 62 62 62 62 61 60 58 57 56 55 55 55 55 55 51 52 54 56 58 59 60 62 63 64 64 63 63 61 63 62 61
63 63 62 62 62 61 60 59 58 57 56 56 56 56 57 57 56 56 55 56 57 57 58 58 60 62 62 62 63 63 61 62 63
61 61 61 61 61 61 59 58 57 57 57 57 57 57 57 57 57 57 57 58 58 58 59 59 59 60 60 61 61 61 61 60 61
59 59 59 59 59 58 58 58 57 57 58 56 56 54 55 56 55 56 57 55 55 56 58 58 56 55 54 55 56 57 58 58 58
60 60 60 58 58 58 58 58 58 58 59 59 57 54 53 55 55 53 55 55 54 54 54 55 54 53 51 52 52 54 56 58 58
62 62 62 61 61 61 60 61 61 60 59 60 60 59 58 56 54 54 52 51 52 52 52 52 53 51 50 50 52 53 53 55 57
64 63 63 63 63 63 63 62 62 61 61 60 59 59 59 59 57 54 54 52 51 51 51 51 50 49 48 49 53 55 56 54 55

GFSFLT1_sfc_dewp_111.txt.gz
Dewpoint
68 70 70 71 71 70 70 68 68 66 65 65 65 65 64 64 62 62 63 62 64 64 64 64 63 63 63 63 63 63 62 63 62
68 69 71 71 70 70 69 68 67 65 64 64 64 64 63 60 61 61 62 62 64 64 64 63 63 63 63 62 62 62 62 62 62
68 70 71 71 69 69 69 68 67 65 64 64 64 64 63 60 61 62 62 65 64 64 63 63 63 62 62 62 62 62 62 61 61
68 70 71 71 70 69 69 68 67 65 64 64 64 64 63 60 61 60 61 65 64 64 63 63 62 62 62 61 62 61 61 61 61
69 70 70 70 70 69 69 69 68 67 65 64 64 64 63 60 62 62 62 64 64 63 63 63 62 62 61 61 61 60 61 61 60
67 67 69 69 70 69 68 67 67 67 66 66 64 62 60 60 61 62 65 64 64 63 63 63 62 61 61 60 60 60 60 60 60
66 66 68 69 69 68 67 66 64 62 61 62 62 60 60 60 61 62 65 63 63 63 62 62 62 61 61 60 60 60 59 59 60
67 68 68 67 65 65 64 61 59 59 58 59 60 61 60 61 61 63 66 64 63 63 62 62 62 61 61 60 60 59 59 59 58
66 66 66 66 65 64 62 59 59 59 58 58 57 57 61 61 62 63 65 66 63 62 62 61 61 61 61 60 59 59 58 58 58
65 64 64 64 63 62 60 58 58 58 58 58 57 54 58 60 61 62 62 65 65 63 63 62 61 60 60 60 59 58 58 57 57
63 63 62 62 61 60 58 57 58 60 61 60 57 53 53 56 60 61 61 64 66 66 65 64 63 62 61 60 59 59 58 57 57
62 61 61 60 61 61 61 61 62 62 62 61 60 59 55 52 54 59 60 61 63 65 66 66 65 65 64 62 61 60 60 59 58
61 60 61 62 63 63 63 62 62 62 60 60 59 58 57 55 52 54 58 59 59 62 64 65 65 64 64 63 63 63 61 61 60
63 62 62 63 63 63 63 62 62 61 60 58 57 56 56 56 54 53 54 57 59 59 61 62 63 64 64 63 62 62 63 63 61
65 64 63 63 63 63 62 62 61 60 58 56 56 57 58 58 57 55 54 55 57 58 59 59 60 62 63 62 62 62 61 62 63
65 64 64 63 63 62 62 61 60 59 58 58 58 58 58 58 58 58 58 59 59 59 59 59 60 61 62 62 61 61 61 60 60
62 62 62 63 62 62 61 60 59 58 59 58 57 56 56 57 55 57 58 58 57 58 60 60 60 58 57 57 57 58 58 58 58
61 61 62 61 61 61 61 60 60 59 60 59 59 56 55 57 57 55 55 57 57 56 56 57 56 56 55 54 53 55 57 57 57
62 62 62 61 62 61 61 61 61 61 60 61 61 61 60 56 56 55 53 53 53 54 54 53 53 52 52 51 52 53 54 56 57
63 63 63 63 63 63 62 61 61 62 61 61 60 61 60 60 57 55 56 54 54 54 52 53 52 51 51 52 53 55 57 56 56

GFSFLT1_sfc_dewp_114.txt.gz
Dewpoint
71 71 72 72 71 71 69 68 67 66 67 66 66 65 64 63 58 59 61 61 64 64 64 63 63 63 63 63 63 63 63 63 62
71 71 72 71 71 70 68 66 65 64 64 64 64 64 64 57 58 59 60 62 64 64 64 63 63 63 63 63 63 62 62 62 63
70 72 71 71 70 69 68 65 65 64 64 64 64 63 63 58 59 60 61 65 64 64 63 63 63 62 62 62 62 62 62 61 62
70 71 71 70 70 70 69 66 65 64 64 64 64 64 63 58 58 58 60 66 64 64 63 63 62 62 62 62 61 61 61 61 62
70 70 70 70 70 70 69 68 65 64 64 64 64 64 63 58 59 59 62 64 64 64 63 62 62 61 61 61 61 61 60 61 60
68 67 69 69 69 70 69 68 67 66 66 65 63 63 57 57 58 59 66 64 64 64 63 62 62 61 61 60 60 60 60 60 59
64 66 68 69 68 68 68 67 66 64 61 60 62 57 57 57 59 60 66 64 63 63 63 62 62 62 61 60 60 60 60 60 60
65 67 66 66 64 62 63 62 59 60 58 59 59 58 58 57 59 62 65 64 63 63 62 62 62 61 61 60 59 59 59 59 59
63 65 65 63 62 61 60 58 59 59 58 57 56 58 58 58 59 61 65 65 63 63 62 62 61 61 60 60 59 58 58 58 58
64 64 64 62 61 60 57 56 57 57 57 57 57 55 58 59 59 59 64 65 65 63 63 62 62 61 60 60 59 59 58 57 57
61 61 61 61 60 57 56 55 55 56 56 56 55 52 54 55 58 58 60 64 66 65 64 64 63 62 62 60 60 59 59 58 57
61 59 60 59 57 56 55 55 56 58 59 59 57 58 56 54 54 55 57 60 63 65 67 66 65 64 64 63 62 61 61 60 59
59 58 58 57 56 56 55 55 57 60 61 60 59 59 58 57 55 54 55 57 57 62 65 66 65 65 65 64 64 63 62 62 60
58 56 56 57 60 60 61 61 61 61 61 60 59 57 57 57 55 55 54 55 57 58 62 63 64 65 64 64 64 63 64 64 63
58 58 60 61 62 61 61 61 62 61 60 56 56 58 58 58 57 56 55 54 57 57 58 59 59 61 63 64 63 62 62 63 64
62 62 62 63 62 62 62 62 62 61 60 58 57 58 59 59 59 59 58 58 59 59 59 59 60 61 63 63 62 61 61 60 61
63 63 63 63 63 63 62 62 61 61 60 57 58 56 57 58 57 58 59 59 59 59 60 61 61 61 59 59 58 58 59 59 59
64 63 64 64 64 63 63 63 62 60 61 60 59 56 55 58 59 57 57 58 59 58 57 58 57 56 56 55 54 54 56 59 59
63 63 62 63 64 63 63 63 63 61 60 61 61 62 60 57 55 57 56 55 55 55 56 55 55 54 54 53 53 54 54 56 58
62 62 62 63 63 63 62 61 61 62 61 61 61 61 61 60 58 56 57 56 56 56 55 54 54 52 52 53 54 55 56 58 58

GFSFLT1_sfc_dewp_117.txt.gz
Dewpoint
71 72 72 71 71 70 68 68 68 68 68 67 65 63 64 65 58 60 62 61 64 64 64 64 63 63 63 63 63 63 62 64 62
72 72 71 71 71 69 68 66 66 66 65 64 63 62 64 57 58 59 61 62 64 64 64 63 63 63 63 63 63 63 63 63 61
72 72 71 71 70 67 66 65 65 65 64 64 63 63 64 58 59 61 62 65 64 64 63 63 63 63 62 62 62 62 62 61 61
72 71 71 71 70 68 67 65 65 64 64 64 63 64 63 58 58 59 61 66 64 64 63 63 62 62 62 62 62 61 61 62 61
71 70 70 70 70 69 67 66 65 64 64 64 64 63 63 58 58 60 62 65 64 64 63 62 62 62 61 61 61 61 61 61 61
68 67 69 69 70 69 68 67 66 66 65 64 64 63 56 57 58 60 66 64 64 64 63 63 62 61 61 61 61 60 61 60 60
66 66 68 69 69 69 68 67 66 63 59 59 62 57 56 57 58 61 66 64 64 64 63 62 62 61 61 60 60 60 60 60 60
67 67 65 65 65 64 65 64 61 60 58 58 56 55 55 56 58 63 66 64 63 63 63 62 62 61 61 60 60 59 59 59 59
66 65 64 62 61 61 60 59 58 58 57 56 56 56 56 56 58 62 65 65 63 63 62 62 62 61 61 60 59 59 58 58 58
65 64 64 61 60 59 58 57 57 56 55 55 55 55 56 57 58 61 64 66 65 63 63 62 62 61 61 60 59 59 58 57 57
63 64 64 61 60 58 56 55 56 55 55 54 53 52 54 55 57 58 62 65 66 65 64 64 63 62 62 61 60 59 59 58 57
62 61 61 60 59 56 55 54 54 55 56 56 54 54 53 53 54 56 58 62 64 66 66 66 65 64 64 63 62 61 61 60 59
61 60 59 58 56 55 55 54 56 58 60 60 59 58 59 56 55 55 55 58 58 63 66 66 66 66 65 65 65 64 63 62 61
59 58 57 56 56 55 56 56 57 61 60 60 59 59 58 57 56 55 55 57 58 59 63 64 64 65 65 65 65 64 64 64 63
58 57 55 55 58 59 60 60 61 60 60 58 56 58 59 59 58 56 55 56 57 58 60 61 60 62 63 64 64 64 62 64 64
56 56 57 59 60 60 60 61 61 61 61 60 59 58 58 58 58 59 58 58 59 59 60 61 62 60 63 63 63 62 62 62 61
58 60 60 60 61 60 61 62 62 62 62 58 59 57 58 58 58 58 59 59 60 60 60 62 62 63 61 59 57 58 60 60 60
63 63 62 63 62 63 63 63 63 61 62 60 59 56 56 58 59 58 57 58 59 58 58 59 58 58 57 56 55 56 57 59 61
65 65 64 64 65 64 64 64 64 64 62 61 61 62 60 58 56 57 56 56 56 57 57 56 56 56 55 54 54 55 56 58 59
64 64 64 64 65 65 65 64 62 62 62 62 62 61 61 60 58 56 58 58 59 58 56 56 54 53 54 54 54 55 56 57 59

GFSFLT1_sfc_dewp_120.txt.gz
Dewpoint
72 72 72 71 71 70 70 69 68 67 68 65 64 64 65 63 59 61 63 62 64 65 64 64 64 64 63 63 64 63 63 62 63
72 71 72 71 70 69 68 68 67 67 65 63 63 64 65 59 60 61 62 62 64 64 64 64 64 64 63 63 63 63 61 62 63
72 71 71 71 69 68 66 66 65 65 64 63 63 64 64 60 61 62 63 65 64 64 64 63 63 63 63 63 62 62 61 61 62
72 71 71 70 68 67 67 65 65 64 64 63 64 63 64 59 61 61 63 66 64 64 63 63 63 62 63 62 62 62 61 61 61
71 70 70 69 68 68 67 66 65 64 64 64 64 63 62 58 61 62 64 65 64 64 63 63 62 62 62 62 62 61 61 61 60
68 67 69 69 68 68 67 66 65 66 64 64 64 63 58 58 61 63 66 65 64 64 63 63 62 62 62 61 61 61 61 61 60
67 67 68 69 68 68 67 66 66 63 60 59 62 60 57 59 61 63 66 64 64 64 63 63 62 62 61 61 60 61 60 61 60
67 67 67 67 66 67 66 65 62 61 58 58 59 56 57 58 60 64 66 65 64 64 63 63 62 62 61 60 60 60 59 60 60
65 64 65 64 64 64 63 62 61 60 58 57 56 55 57 59 62 64 64 65 64 63 63 63 62 62 61 60 59 59 59 58 58
64 63 62 62 61 61 60 59 58 57 56 55 54 56 56 57 61 63 63 65 65 64 63 63 62 62 61 60 60 59 58 58 57
63 63 63 61 60 59 58 57 57 56 55 54 54 53 55 56 58 62 63 64 66 65 64 63 63 62 62 61 60 60 59 58 57
62 62 63 62 60 57 56 55 55 55 56 55 53 52 52 53 54 59 61 64 64 66 65 65 65 64 64 63 62 61 61 60 59
62 61 63 60 58 56 55 54 54 57 58 59 57 58 58 56 53 54 58 61 62 64 66 67 66 66 66 65 65 64 63 63 62
61 61 59 58 57 56 54 54 56 59 60 59 59 58 57 56 56 55 54 56 58 61 63 64 65 65 65 65 65 65 65 64 64
59 58 57 56 56 57 58 57 59 60 60 58 57 58 58 58 57 56 55 55 56 56 60 61 61 63 64 63 64 64 62 63 63
57 57 55 57 59 59 59 60 60 61 60 59 58 58 58 58 58 59 59 59 59 60 61 63 62 61 63 63 63 63 63 61 61
55 56 56 59 60 60 60 61 61 61 61 58 57 55 57 58 57 59 58 58 59 59 59 60 61 61 60 59 59 59 59 61 62
58 60 60 60 61 61 61 62 61 60 61 59 58 54 53 57 58 57 57 57 57 57 57 58 58 58 57 57 56 57 58 59 60
63 63 62 62 63 63 63 63 62 62 60 61 61 60 59 55 54 56 55 56 56 55 55 55 56 56 55 55 54 55 57 59 60
64 64 64 64 64 63 63 62 61 61 61 60 60 59 58 59 56 53 54 55 56 56 55 54 53 53 52 52 53 54 56 58 60

GFSFLT1_sfc_dewp_126.txt.gz
Dewpoint
72 72 72 71 71 71 69 69 68 67 68 67 66 66 65 64 62 62 63 61 64 64 64 63 63 65 63 62 65 62 62 62 63
72 72 71 71 70 69 68 68 66 66 67 66 66 66 65 61 61 62 62 61 64 64 64 64 63 63 62 62 62 63 64 64 63
72 72 71 70 69 68 67 68 65 66 65 67 66 66 64 62 62 62 62 65 64 64 63 63 62 62 62 61 62 62 62 62 62
71 71 71 70 69 68 68 67 65 65 65 67 66 65 64 62 62 62 63 66 64 64 63 63 63 62 62 61 62 62 61 61 63
70 69 69 69 69 68 67 65 65 66 66 67 66 65 64 62 62 63 64 65 64 64 63 63 63 62 62 62 61 61 61 61 61
68 67 68 68 68 67 66 66 66 65 64 65 64 62 61 61 62 63 66 65 64 64 63 63 62 62 62 61 61 61 61 61 61
68 66 67 67 67 67 66 66 65 62 58 59 61 60 61 62 62 64 66 65 65 64 63 62 62 62 61 61 61 61 61 61 61
67 66 66 65 64 65 65 64 59 56 56 57 58 59 60 61 63 64 66 65 65 64 63 63 62 61 61 60 60 60 60 59 60
66 65 64 64 63 63 61 60 59 57 57 57 58 58 60 61 62 63 65 66 64 64 64 63 62 62 61 60 59 59 58 58 59
65 64 64 64 63 62 60 60 60 60 60 59 56 58 60 61 62 62 63 65 65 64 64 63 63 62 61 60 60 59 58 58 57
65 64 64 63 63 62 61 60 60 60 57 55 56 57 59 60 62 62 63 64 65 65 64 64 63 63 62 62 61 60 59 58 58
64 63 63 63 63 62 60 59 58 56 55 54 53 55 58 60 61 62 62 63 63 65 65 65 65 64 64 63 63 62 62 61 60
63 63 62 62 62 60 59 57 56 55 56 54 53 52 53 56 60 60 61 62 63 64 66 67 66 66 66 65 65 65 64 63 62
62 62 61 61 61 59 58 55 55 56 58 59 57 57 56 56 55 57 60 61 62 62 63 64 65 66 65 65 64 64 64 64 64
61 60 60 61 60 57 55 54 57 58 59 58 58 57 57 57 57 55 55 57 60 60 60 60 61 62 63 63 64 63 64 63 62
61 60 60 60 57 56 54 55 58 59 59 58 57 57 58 57 58 58 59 59 60 60 60 61 60 60 63 63 63 63 62 62 63
60 59 59 58 56 55 54 58 59 60 59 57 56 55 56 57 58 58 58 57 58 58 57 59 59 58 57 58 59 60 60 60 60
60 59 59 57 56 55 56 59 60 59 59 58 56 53 52 56 57 56 56 55 56 55 55 56 56 56 55 56 55 57 59 60 61
61 60 58 57 57 57 58 60 61 60 59 59 60 58 57 54 54 55 54 55 54 54 54 54 54 54 53 54 55 56 57 59 60
59 58 58 58 59 59 60 61 61 61 60 59 59 57 57 57 54 50 52 53 54 54 54 53 52 52 51 51 53 55 56 57 59

GFSFLT1_sfc_dewp_129.txt.gz
Dewpoint
71 71 71 71 71 71 70 67 67 68 70 67 66 66 66 64 62 62 63 60 63 64 64 63 64 62 65 64 63 63 62 62 65
72 72 71 71 71 70 69 67 67 67 68 66 66 66 64 61 61 61 61 61 64 63 63 63 63 63 63 62 62 63 65 63 63
71 72 71 71 69 69 68 66 66 67 68 66 66 65 64 62 62 62 62 65 64 64 63 62 62 62 62 62 62 62 62 63 63
71 71 71 70 69 69 68 66 66 67 67 66 66 65 64 61 62 62 62 65 63 63 63 62 62 62 62 62 62 61 62 63 62
71 70 69 69 69 69 68 67 66 67 68 66 66 65 64 61 62 63 63 65 64 63 62 62 62 61 62 61 61 61 61 62 62
69 68 69 69 69 68 67 67 67 66 66 66 65 63 61 61 62 63 66 64 64 63 63 62 62 62 62 61 61 61 61 60 59
67 66 67 68 67 67 67 67 66 62 60 62 63 61 60 61 62 63 66 64 64 64 63 62 62 62 61 61 61 61 60 60 61
66 66 66 65 64 64 65 64 60 57 57 58 59 59 60 61 62 64 66 65 64 64 63 62 62 61 61 60 60 60 59 59 60
65 65 63 63 62 62 61 59 57 56 57 58 58 59 60 61 62 63 65 66 64 64 63 63 62 61 61 60 59 59 58 58 58
65 64 63 62 61 60 59 57 57 57 57 57 58 59 59 60 62 62 63 65 66 64 63 63 62 62 61 60 59 59 58 57 57
64 63 63 62 61 60 59 57 58 59 59 59 56 58 60 60 61 62 62 64 65 65 64 64 63 63 62 62 61 60 59 59 58
63 63 62 62 61 60 59 59 59 58 55 55 56 58 59 60 60 61 61 63 63 65 65 65 64 64 64 64 63 63 62 61 60
64 63 61 62 61 60 59 59 58 56 55 54 53 56 58 59 59 60 61 62 63 63 65 66 66 66 66 65 65 65 65 64 63
64 62 61 61 61 60 59 57 56 55 56 55 55 55 53 55 58 59 60 60 61 62 62 63 64 65 65 65 64 64 63 64 63
63 62 61 61 61 59 58 55 56 56 58 57 57 57 56 56 56 55 57 59 60 60 60 59 60 62 63 63 64 64 64 63 62
63 62 61 60 60 58 57 55 56 58 59 57 57 57 58 57 57 58 58 58 58 60 60 60 59 60 63 63 63 63 63 63 63
63 61 60 60 59 58 56 56 58 59 59 57 56 54 56 57 57 57 58 57 58 57 57 58 58 57 57 57 59 60 61 61 61
63 62 60 59 59 57 55 56 58 58 59 58 56 53 52 55 56 56 56 56 56 55 55 55 56 55 55 55 55 57 59 60 60
63 61 60 59 59 57 56 56 58 59 59 58 59 57 56 53 53 55 54 55 54 53 54 53 54 53 53 54 55 56 57 58 59
64 63 61 59 59 57 57 58 60 59 59 58 58 57 57 56 53 51 53 54 53 53 53 52 52 51 51 51 53 54 56 57 58

GFSFLT1_sfc_dewp_132.txt.gz
Dewpoint
71 72 72 72 71 71 68 68 69 70 68 66 66 66 66 64 62 62 60 59 65 62 65 63 63 64 63 65 65 63 65 64 63
72 72 72 71 71 69 68 67 69 69 68 66 66 66 64 61 61 61 60 60 64 64 62 62 63 64 63 61 63 63 64 63 61
72 72 71 71 70 69 67 67 67 68 67 66 66 65 64 62 61 62 61 64 64 63 62 62 62 63 62 62 62 63 63 62 62
71 71 71 70 70 69 68 67 68 67 67 66 66 65 64 61 62 62 62 62 64 63 61 62 62 62 62 61 61 61 63 62 61
71 70 70 70 70 69 68 68 69 68 67 66 66 65 63 61 62 62 62 64 62 63 62 62 62 62 62 61 61 61 61 62 61
69 67 68 69 69 69 68 68 68 68 67 66 65 63 61 61 62 63 66 64 64 63 63 62 62 62 62 62 61 61 61 61 61
68 67 67 69 68 67 68 67 67 64 63 63 63 60 60 61 62 63 66 64 64 63 63 62 62 62 61 61 61 61 61 61 61
67 67 67 66 64 64 65 64 59 59 60 60 59 59 59 60 62 64 66 65 64 63 63 62 62 61 61 60 60 60 60 59 60
66 65 64 63 62 62 61 59 57 57 57 58 58 59 59 60 61 62 65 66 64 64 63 63 62 61 60 60 59 59 58 58 58
65 64 63 62 61 60 59 57 56 56 57 58 59 59 59 60 61 62 63 65 66 64 63 63 62 62 61 60 59 59 58 58 57
65 64 63 61 61 59 58 56 56 57 58 58 57 59 59 59 60 61 62 64 65 65 64 64 63 63 62 62 61 60 60 59 59
65 63 62 61 60 59 57 57 57 58 58 58 56 58 59 59 60 60 60 62 63 65 65 64 64 64 64 64 63 63 63 62 61
64 63 62 61 60 59 57 57 57 58 55 54 55 57 59 59 59 60 60 61 62 63 65 66 66 65 64 64 65 64 65 65 64
63 63 62 61 60 59 57 56 57 56 55 54 53 55 57 58 59 59 59 60 61 61 62 62 63 63 64 64 64 63 63 63 63
64 63 61 60 59 58 58 56 56 56 56 54 55 56 54 55 56 57 59 59 60 60 59 59 59 61 62 63 63 63 63 63 62
64 63 61 60 58 58 58 56 56 56 58 56 56 56 57 56 56 57 56 57 58 58 59 59 58 60 62 63 63 63 64 63 62
64 63 62 60 58 58 58 56 56 57 58 56 55 54 56 56 57 57 57 57 57 57 57 58 57 57 56 57 59 61 61 61 60
64 64 63 61 59 58 57 56 56 56 58 57 56 52 52 54 55 55 56 56 55 55 55 55 55 55 55 55 55 58 59 60 59
64 64 63 62 60 59 57 56 57 57 57 57 58 56 55 53 53 54 54 54 54 54 54 54 53 53 52 54 55 56 57 58 58
64 64 63 62 61 60 58 57 57 58 58 58 57 56 55 54 53 52 52 53 53 53 53 52 51 51 51 50 53 54 56 57 57